FW1385 Weather Reports


Display with metric or nautical units.
time (UTC)temp
F
wind
direction
speed
MPH
gust
MPH
rain 1hr
in
rain 24hr
in
rain mn
in
humidity
%
barometer
mb
20260903193003 99 69 1.0 3.0 0.00 0.00 0.00 48 1013.3
20260903192903 99 75 1.0 3.0 0.00 0.00 0.00 47 1013.4
20260903192703 99 55 1.0 3.0 0.00 0.00 0.00 47 1013.4
20260903192603 99 59 1.0 3.0 0.00 0.00 0.00 46 1013.4
20260903192503 100 62 1.0 3.0 0.00 0.00 0.00 48 1013.4
20260903192403 100 73 1.0 3.0 0.00 0.00 0.00 48 1013.5
20260903192306 100 95 1.0 3.0 0.00 0.00 0.00 47 1013.5
20260903192203 100 110 1.0 3.0 0.00 0.00 0.00 46 1013.5
20260903192104 100 114 1.0 3.0 0.00 0.00 0.00 48 1013.5
20260903192003 100 123 1.0 2.0 0.00 0.00 0.00 49 1013.5
20260903191904 99 120 1.0 3.0 0.00 0.00 0.00 47 1013.5
20260903191803 99 100 1.0 3.0 0.00 0.00 0.00 53 1013.5
20260903191703 99 92 1.0 3.0 0.00 0.00 0.00 50 1013.6
20260903191604 99 83 1.0 3.0 0.00 0.00 0.00 47 1013.6
20260903191503 99 73 1.0 3.0 0.00 0.00 0.00 48 1013.6
20260903191403 99 66 1.0 3.0 0.00 0.00 0.00 49 1013.7
20260903191303 98 54 2.0 4.0 0.00 0.00 0.00 47 1013.7
20260903191216 98 45 2.0 4.0 0.00 0.00 0.00 47 1013.7
20260903191204 98 43 2.0 4.0 0.00 0.00 0.00 47 1013.7
20260903191103 98 37 2.0 4.0 0.00 0.00 0.00 48 1013.7
20260903190918 98 22 2.0 4.0 0.00 0.00 0.00 49 1013.6
20260903190904 98 21 2.0 4.0 0.00 0.00 0.00 48 1013.6
20260903190803 98 18 1.0 4.0 0.00 0.00 0.00 48 1013.7
20260903190603 98 14 1.0 4.0 0.00 0.00 0.00 47 1013.7
20260903190504 99 5 1.0 4.0 0.00 0.00 0.00 47 1013.7
20260903190403 99 343 1.0 4.0 0.00 0.00 0.00 46 1013.7
20260903190303 99 241 1.0 3.0 0.00 0.00 0.00 49 1013.8
20260903190203 99 200 1.0 3.0 0.00 0.00 0.00 50 1013.8
20260903190003 98 190 1.0 3.0 0.00 0.00 0.00 48 1013.8
20260903185904 98 185 1.0 3.0 0.00 0.00 0.00 49 1013.8
20260903185803 97 184 1.0 3.0 0.00 0.00 0.00 51 1013.9
20260903185704 97 185 1.0 3.0 0.00 0.00 0.00 50 1013.9
20260903185604 97 185 1.0 3.0 0.00 0.00 0.00 50 1013.9
20260903185504 97 187 1.0 3.0 0.00 0.00 0.00 49 1013.9
20260903185404 97 193 1.0 3.0 0.00 0.00 0.00 49 1013.8
20260903185306 98 202 1.0 3.0 0.00 0.00 0.00 48 1013.9
20260903185203 98 263 1.0 3.0 0.00 0.00 0.00 48 1013.9
20260903185103 99 286 1.0 3.0 0.00 0.00 0.00 48 1013.9
20260903185004 99 264 1.0 3.0 0.00 0.00 0.00 48 1013.9
20260903184918 99 305 1.0 3.0 0.00 0.00 0.00 47 1013.9
20260903184903 99 313 1.0 3.0 0.00 0.00 0.00 47 1013.9
20260903184804 99 311 1.0 6.0 0.00 0.00 0.00 48 1013.9
20260903184604 99 338 1.0 6.0 0.00 0.00 0.00 50 1014.0
20260903184503 99 329 1.0 6.0 0.00 0.00 0.00 49 1014.0
20260903184403 99 324 1.0 6.0 0.00 0.00 0.00 47 1014.0
20260903184304 99 332 2.0 6.0 0.00 0.00 0.00 47 1014.1
20260903184204 99 335 2.0 6.0 0.00 0.00 0.00 47 1014.1
20260903184104 99 337 2.0 6.0 0.00 0.00 0.00 47 1014.1
20260903184017 99 339 2.0 6.0 0.00 0.00 0.00 49 1014.1
20260903184004 99 339 2.0 6.0 0.00 0.00 0.00 48 1014.1
20260903183903 99 340 2.0 6.0 0.00 0.00 0.00 48 1014.1
20260903183719 98 346 2.0 4.0 0.00 0.00 0.00 48 1014.1
20260903183703 99 347 2.0 4.0 0.00 0.00 0.00 48 1014.2
20260903183603 99 340 1.0 3.0 0.00 0.00 0.00 48 1014.2
20260903183403 99 7 1.0 3.0 0.00 0.00 0.00 45 1014.3
20260903183304 99 11 1.0 3.0 0.00 0.00 0.00 50 1014.3
20260903183204 99 27 1.0 3.0 0.00 0.00 0.00 48 1014.3
20260903183119 99 43 1.0 3.0 0.00 0.00 0.00 46 1014.3
20260903183103 99 48 1.0 3.0 0.00 0.00 0.00 46 1014.3
20260903183004 100 81 1.0 3.0 0.00 0.00 0.00 45 1014.2
20260903182803 100 102 1.0 3.0 0.00 0.00 0.00 46 1014.2
20260903182703 100 107 1.0 3.0 0.00 0.00 0.00 49 1014.3
20260903182604 99 107 1.0 3.0 0.00 0.00 0.00 48 1014.3
20260903182503 99 105 1.0 3.0 0.00 0.00 0.00 46 1014.3
20260903182417 99 99 1.0 3.0 0.00 0.00 0.00 48 1014.3
20260903182403 99 98 1.0 3.0 0.00 0.00 0.00 48 1014.3
20260903182306 99 91 1.0 3.0 0.00 0.00 0.00 48 1014.3
20260903182117 99 85 1.0 3.0 0.00 0.00 0.00 46 1014.3
20260903182103 99 84 1.0 3.0 0.00 0.00 0.00 46 1014.3
20260903182004 99 71 1.0 3.0 0.00 0.00 0.00 47 1014.3
20260903181817 99 47 1.0 3.0 0.00 0.00 0.00 47 1014.3
20260903181803 99 43 1.0 3.0 0.00 0.00 0.00 47 1014.3
20260903181703 99 44 1.0 3.0 0.00 0.00 0.00 47 1014.4
20260903181504 99 41 1.0 3.0 0.00 0.00 0.00 47 1014.4
20260903181403 99 35 1.0 3.0 0.00 0.00 0.00 47 1014.4
20260903181304 99 29 1.0 3.0 0.00 0.00 0.00 49 1014.4
20260903181204 98 25 1.0 3.0 0.00 0.00 0.00 48 1014.5
20260903181103 98 24 2.0 3.0 0.00 0.00 0.00 48 1014.5
20260903181003 98 24 2.0 3.0 0.00 0.00 0.00 48 1014.5
20260903180903 98 28 1.0 3.0 0.00 0.00 0.00 47 1014.5
20260903180803 98 27 1.0 3.0 0.00 0.00 0.00 49 1014.5
20260903180704 97 18 1.0 3.0 0.00 0.00 0.00 48 1014.5
20260903180603 97 357 1.0 4.0 0.00 0.00 0.00 49 1014.5
20260903180503 97 341 1.0 4.0 0.00 0.00 0.00 48 1014.5
20260903180417 97 339 1.0 4.0 0.00 0.00 0.00 48 1014.6
20260903180404 97 339 1.0 4.0 0.00 0.00 0.00 47 1014.6
20260903180303 98 335 1.0 4.0 0.00 0.00 0.00 47 1014.6
20260903180004 99 316 1.0 4.0 0.00 0.00 0.00 46 1014.6
20260903175903 100 315 1.0 4.0 0.00 0.00 0.00 47 1014.6
20260903175816 100 313 1.0 4.0 0.00 0.00 0.00 47 1014.6
20260903175804 100 312 1.0 4.0 0.00 0.00 0.00 46 1014.6
20260903175703 100 310 1.0 4.0 0.00 0.00 0.00 45 1014.6
20260903175503 100 316 1.0 3.0 0.00 0.00 0.00 47 1014.7
20260903175403 100 322 1.0 3.0 0.00 0.00 0.00 48 1014.7
20260903175319 100 325 1.0 3.0 0.00 0.00 0.00 46 1014.7
20260903175203 100 344 1.0 3.0 0.00 0.00 0.00 46 1014.7
20260903175003 100 109 1.0 4.0 0.00 0.00 0.00 48 1014.7
20260903174903 100 113 1.0 4.0 0.00 0.00 0.00 48 1014.7
20260903174803 100 118 1.0 4.0 0.00 0.00 0.00 49 1014.7
20260903174704 99 117 1.0 4.0 0.00 0.00 0.00 50 1014.7
20260903174603 99 117 2.0 4.0 0.00 0.00 0.00 51 1014.8
20260903174518 99 120 2.0 4.0 0.00 0.00 0.00 52 1014.8
20260903174504 99 119 2.0 4.0 0.00 0.00 0.00 52 1014.8
20260903174403 99 120 2.0 4.0 0.00 0.00 0.00 52 1014.8
20260903174204 100 122 2.0 4.0 0.00 0.00 0.00 50 1014.8
20260903174104 100 112 1.0 4.0 0.00 0.00 0.00 49 1014.9
20260903174017 100 106 1.0 4.0 0.00 0.00 0.00 49 1014.9
20260903174004 100 105 1.0 4.0 0.00 0.00 0.00 49 1014.9
20260903173918 99 99 1.0 4.0 0.00 0.00 0.00 49 1014.9
20260903173903 100 95 1.0 4.0 0.00 0.00 0.00 49 1014.9
20260903173604 99 38 1.0 3.0 0.00 0.00 0.00 51 1014.9
20260903173503 99 28 1.0 3.0 0.00 0.00 0.00 54 1014.9
20260903173403 99 35 1.0 3.0 0.00 0.00 0.00 51 1014.9
20260903173304 99 60 1.0 3.0 0.00 0.00 0.00 51 1014.9
20260903173203 99 91 1.0 3.0 0.00 0.00 0.00 49 1014.9
20260903173103 99 124 1.0 3.0 0.00 0.00 0.00 50 1014.9
20260903173003 99 133 1.0 3.0 0.00 0.00 0.00 49 1014.9
20260903172904 99 150 1.0 3.0 0.00 0.00 0.00 48 1014.9
20260903172816 98 166 1.0 3.0 0.00 0.00 0.00 49 1015.0
20260903172804 98 168 1.0 3.0 0.00 0.00 0.00 49 1015.0
20260903172703 98 177 1.0 3.0 0.00 0.00 0.00 49 1015.0
20260903172617 98 182 1.0 3.0 0.00 0.00 0.00 48 1015.0
20260903172504 98 194 1.0 3.0 0.00 0.00 0.00 48 1015.1
20260903172306 98 262 1.0 3.0 0.00 0.00 0.00 51 1015.1
20260903172203 98 302 1.0 2.0 0.00 0.00 0.00 50 1015.1
20260903172116 98 314 1.0 2.0 0.00 0.00 0.00 50 1015.1
20260903172103 98 315 1.0 2.0 0.00 0.00 0.00 50 1015.1
20260903172017 98 317 1.0 2.0 0.00 0.00 0.00 51 1015.1
20260903172003 98 318 1.0 2.0 0.00 0.00 0.00 51 1015.1
20260903171719 98 326 1.0 4.0 0.00 0.00 0.00 50 1015.2
20260903171703 98 326 1.0 4.0 0.00 0.00 0.00 51 1015.2
20260903171603 97 326 1.0 4.0 0.00 0.00 0.00 50 1015.2
20260903171303 97 325 1.0 4.0 0.00 0.00 0.00 53 1015.2
20260903171204 97 324 0.0 4.0 0.00 0.00 0.00 55 1015.2
20260903171103 97 324 0.0 4.0 0.00 0.00 0.00 52 1015.2
20260903171004 97 323 0.0 4.0 0.00 0.00 0.00 52 1015.3
20260903170903 97 0 0.0 0.0 0.00 0.00 0.00 56 1015.3
20260903170803 97 0 0.0 0.0 0.00 0.00 0.00 56 1015.3
20260903170703 97 359 0.0 1.0 0.00 0.00 0.00 57 1015.3
20260903170603 97 359 0.0 1.0 0.00 0.00 0.00 57 1015.3
20260903170503 97 359 0.0 1.0 0.00 0.00 0.00 55 1015.3
20260903170403 97 359 0.0 2.0 0.00 0.00 0.00 54 1015.3
20260903170303 97 359 0.0 2.0 0.00 0.00 0.00 54 1015.3
20260903170104 97 359 0.0 2.0 0.00 0.00 0.00 54 1015.4
20260903170004 97 359 0.0 2.0 0.00 0.00 0.00 53 1015.3
20260903165903 97 359 0.0 2.0 0.00 0.00 0.00 53 1015.3
20260903165803 97 359 0.0 2.0 0.00 0.00 0.00 52 1015.4
20260903165604 98 359 0.0 2.0 0.00 0.00 0.00 52 1015.4
20260903165503 98 359 1.0 3.0 0.00 0.00 0.00 52 1015.4
20260903165404 98 359 1.0 3.0 0.00 0.00 0.00 51 1015.4
20260903165305 98 359 1.0 3.0 0.00 0.00 0.00 52 1015.4
20260903165203 98 359 1.0 4.0 0.00 0.00 0.00 52 1015.4
20260903165103 98 355 1.0 4.0 0.00 0.00 0.00 52 1015.4
20260903165003 98 353 1.0 4.0 0.00 0.00 0.00 51 1015.4
20260903164917 98 353 1.0 4.0 0.00 0.00 0.00 50 1015.4
20260903164903 98 353 1.0 4.0 0.00 0.00 0.00 50 1015.5
20260903164603 98 342 1.0 4.0 0.00 0.00 0.00 51 1015.4
20260903164504 98 335 1.0 4.0 0.00 0.00 0.00 50 1015.5
20260903164403 98 329 1.0 5.0 0.00 0.00 0.00 49 1015.5
20260903164304 98 329 1.0 5.0 0.00 0.00 0.00 48 1015.5
20260903164203 98 324 1.0 5.0 0.00 0.00 0.00 51 1015.5
20260903164118 98 329 1.0 5.0 0.00 0.00 0.00 53 1015.5
20260903164103 98 331 1.0 5.0 0.00 0.00 0.00 53 1015.5
20260903164003 98 336 1.0 5.0 0.00 0.00 0.00 52 1015.5
20260903163804 98 348 2.0 5.0 0.00 0.00 0.00 52 1015.5
20260903163703 98 352 2.0 5.0 0.00 0.00 0.00 51 1015.6
20260903163603 98 356 2.0 5.0 0.00 0.00 0.00 50 1015.5
20260903163504 98 1 2.0 5.0 0.00 0.00 0.00 50 1015.5
20260903163403 98 8 2.0 4.0 0.00 0.00 0.00 53 1015.6
20260903163304 98 5 2.0 4.0 0.00 0.00 0.00 52 1015.6
20260903163203 98 2 2.0 4.0 0.00 0.00 0.00 51 1015.5
20260903163104 98 355 1.0 4.0 0.00 0.00 0.00 52 1015.6
20260903163004 98 348 1.0 4.0 0.00 0.00 0.00 52 1015.6
20260903162904 98 336 1.0 4.0 0.00 0.00 0.00 56 1015.6
20260903162803 98 324 1.0 4.0 0.00 0.00 0.00 54 1015.6
20260903162704 98 316 1.0 3.0 0.00 0.00 0.00 55 1015.6
20260903162603 98 316 1.0 3.0 0.00 0.00 0.00 54 1015.6
20260903162503 98 319 1.0 3.0 0.00 0.00 0.00 53 1015.6
20260903162404 98 324 1.0 3.0 0.00 0.00 0.00 53 1015.6
20260903162306 98 330 1.0 3.0 0.00 0.00 0.00 52 1015.7
20260903162217 98 332 1.0 3.0 0.00 0.00 0.00 54 1015.7
20260903162203 98 334 1.0 3.0 0.00 0.00 0.00 54 1015.7
20260903162118 98 339 1.0 3.0 0.00 0.00 0.00 55 1015.7
20260903162104 98 340 1.0 3.0 0.00 0.00 0.00 55 1015.7
20260903161803 98 357 1.0 3.0 0.00 0.00 0.00 56 1015.7
20260903161703 98 354 1.0 3.0 0.00 0.00 0.00 56 1015.7
20260903161604 98 350 1.0 3.0 0.00 0.00 0.00 55 1015.7
20260903161503 97 348 1.0 3.0 0.00 0.00 0.00 55 1015.7
20260903161418 97 343 1.0 3.0 0.00 0.00 0.00 55 1015.7
20260903161403 97 341 1.0 3.0 0.00 0.00 0.00 54 1015.7
20260903161303 97 330 1.0 3.0 0.00 0.00 0.00 55 1015.7
20260903161104 97 336 1.0 3.0 0.00 0.00 0.00 56 1015.8
20260903161017 97 334 1.0 3.0 0.00 0.00 0.00 58 1015.8
20260903161004 97 333 1.0 3.0 0.00 0.00 0.00 58 1015.8
20260903160903 97 321 1.0 3.0 0.00 0.00 0.00 57 1015.7
20260903160703 97 336 0.0 3.0 0.00 0.00 0.00 57 1015.7
20260903160604 97 349 1.0 3.0 0.00 0.00 0.00 58 1015.7
20260903160503 97 352 1.0 3.0 0.00 0.00 0.00 58 1015.8
20260903160403 97 357 1.0 3.0 0.00 0.00 0.00 56 1015.8
20260903160303 96 1 1.0 3.0 0.00 0.00 0.00 57 1015.8
20260903160204 96 1 1.0 3.0 0.00 0.00 0.00 58 1015.8
20260903160104 96 1 1.0 3.0 0.00 0.00 0.00 58 1015.7
20260903160004 96 1 1.0 3.0 0.00 0.00 0.00 58 1015.8
20260903155904 96 1 1.0 4.0 0.00 0.00 0.00 57 1015.8
20260903155803 96 1 1.0 4.0 0.00 0.00 0.00 57 1015.7
20260903155703 96 1 2.0 4.0 0.00 0.00 0.00 57 1015.7
20260903155603 96 4 2.0 4.0 0.00 0.00 0.00 56 1015.8
20260903155503 96 6 1.0 4.0 0.00 0.00 0.00 57 1015.8
20260903155404 96 10 1.0 4.0 0.00 0.00 0.00 57 1015.8
20260903155306 96 14 1.0 4.0 0.00 0.00 0.00 58 1015.8
20260903155217 96 15 1.0 4.0 0.00 0.00 0.00 57 1015.8
20260903155203 96 16 1.0 4.0 0.00 0.00 0.00 57 1015.8
20260903155118 96 16 1.0 4.0 0.00 0.00 0.00 57 1015.8
20260903155103 96 17 1.0 4.0 0.00 0.00 0.00 57 1015.8
20260903154804 96 27 1.0 4.0 0.00 0.00 0.00 58 1015.8
20260903154703 96 33 1.0 3.0 0.00 0.00 0.00 61 1015.8
20260903154603 95 31 1.0 3.0 0.00 0.00 0.00 61 1015.8
20260903154504 95 30 1.0 3.0 0.00 0.00 0.00 60 1015.8
20260903154403 95 27 1.0 3.0 0.00 0.00 0.00 59 1015.8
20260903154317 95 25 1.0 3.0 0.00 0.00 0.00 59 1015.9
20260903154203 95 25 1.0 3.0 0.00 0.00 0.00 60 1015.9
20260903154004 95 25 1.0 3.0 0.00 0.00 0.00 59 1015.9
20260903153904 95 25 0.0 2.0 0.00 0.00 0.00 60 1015.9
20260903153804 95 25 0.0 2.0 0.00 0.00 0.00 59 1015.8
20260903153703 95 25 0.0 2.0 0.00 0.00 0.00 60 1015.8
20260903153603 95 25 0.0 2.0 0.00 0.00 0.00 60 1015.8
20260903153503 94 25 1.0 2.0 0.00 0.00 0.00 60 1015.9
20260903153303 94 25 1.0 2.0 0.00 0.00 0.00 62 1015.9
20260903153203 94 25 1.0 2.0 0.00 0.00 0.00 62 1015.9
20260903153103 94 25 1.0 2.0 0.00 0.00 0.00 62 1015.9
20260903153003 94 26 1.0 2.0 0.00 0.00 0.00 61 1015.9
20260903152904 94 28 1.0 2.0 0.00 0.00 0.00 60 1015.9
20260903152718 94 33 1.0 2.0 0.00 0.00 0.00 61 1015.9
20260903152703 94 33 1.0 2.0 0.00 0.00 0.00 60 1015.9
20260903152604 94 35 0.0 2.0 0.00 0.00 0.00 61 1015.9
20260903152403 94 48 1.0 2.0 0.00 0.00 0.00 62 1015.9
20260903152306 93 51 1.0 3.0 0.00 0.00 0.00 62 1015.9
20260903152203 93 57 1.0 3.0 0.00 0.00 0.00 62 1015.9
20260903152103 93 57 1.0 3.0 0.00 0.00 0.00 65 1015.9
20260903152003 93 59 1.0 3.0 0.00 0.00 0.00 64 1016.0
20260903151904 93 59 1.0 3.0 0.00 0.00 0.00 64 1016.0
20260903151804 93 59 1.0 3.0 0.00 0.00 0.00 64 1016.0
20260903151704 93 59 1.0 3.0 0.00 0.00 0.00 63 1016.0
20260903151603 93 59 1.0 3.0 0.00 0.00 0.00 62 1015.9
20260903151503 93 58 1.0 3.0 0.00 0.00 0.00 63 1015.9
20260903151404 93 54 0.0 3.0 0.00 0.00 0.00 63 1015.9
20260903151303 92 46 0.0 3.0 0.00 0.00 0.00 64 1015.9
20260903151103 92 22 0.0 1.0 0.00 0.00 0.00 65 1016.0
20260903151003 92 22 0.0 1.0 0.00 0.00 0.00 65 1016.0
20260903150904 92 22 0.0 2.0 0.00 0.00 0.00 65 1015.9
20260903150803 92 22 0.0 2.0 0.00 0.00 0.00 65 1015.9
20260903150703 92 22 0.0 2.0 0.00 0.00 0.00 65 1016.0
20260903150619 92 22 0.0 2.0 0.00 0.00 0.00 65 1016.0
20260903150504 92 22 1.0 2.0 0.00 0.00 0.00 65 1016.0
20260903150418 92 22 1.0 2.0 0.00 0.00 0.00 66 1016.0
20260903150304 92 22 1.0 3.0 0.00 0.00 0.00 66 1016.0
20260903150104 91 22 1.0 3.0 0.00 0.00 0.00 66 1015.9
20260903150003 91 22 1.0 3.0 0.00 0.00 0.00 66 1015.9
20260903145904 91 22 1.0 3.0 0.00 0.00 0.00 66 1016.0
20260903145804 91 22 1.0 3.0 0.00 0.00 0.00 66 1015.9
20260903145703 91 20 1.0 3.0 0.00 0.00 0.00 66 1015.9
20260903145603 91 15 1.0 3.0 0.00 0.00 0.00 67 1015.8
20260903145404 91 3 0.0 3.0 0.00 0.00 0.00 66 1015.9
20260903145305 91 351 0.0 2.0 0.00 0.00 0.00 68 1015.8
20260903145203 91 351 1.0 3.0 0.00 0.00 0.00 68 1015.8
20260903145103 90 351 1.0 3.0 0.00 0.00 0.00 68 1015.8
20260903145004 90 351 1.0 3.0 0.00 0.00 0.00 67 1015.8
20260903144904 90 351 1.0 3.0 0.00 0.00 0.00 68 1015.8
20260903144803 90 351 1.0 3.0 0.00 0.00 0.00 68 1015.8
20260903144703 90 351 1.0 3.0 0.00 0.00 0.00 68 1015.8
20260903144603 90 351 1.0 3.0 0.00 0.00 0.00 68 1015.8
20260903144503 90 351 1.0 3.0 0.00 0.00 0.00 68 1015.8
20260903144403 90 351 1.0 3.0 0.00 0.00 0.00 68 1015.8
20260903144303 90 348 1.0 3.0 0.00 0.00 0.00 68 1015.9
20260903144203 90 348 1.0 3.0 0.00 0.00 0.00 69 1015.9
20260903144103 90 347 1.0 3.0 0.00 0.00 0.00 68 1015.9
20260903144004 90 345 1.0 3.0 0.00 0.00 0.00 69 1015.9
20260903143904 90 344 1.0 3.0 0.00 0.00 0.00 69 1015.9
20260903143817 90 338 1.0 3.0 0.00 0.00 0.00 70 1015.9
20260903143803 90 336 1.0 3.0 0.00 0.00 0.00 70 1015.9
20260903143704 89 330 1.0 3.0 0.00 0.00 0.00 70 1015.9
20260903143504 89 322 1.0 3.0 0.00 0.00 0.00 70 1015.8
20260903143417 89 315 1.0 3.0 0.00 0.00 0.00 71 1015.8
20260903143403 89 314 1.0 3.0 0.00 0.00 0.00 71 1015.8
20260903143303 89 309 0.0 2.0 0.00 0.00 0.00 71 1015.9
20260903143104 88 309 1.0 2.0 0.00 0.00 0.00 71 1015.8
20260903143004 88 309 1.0 2.0 0.00 0.00 0.00 72 1015.8
20260903142904 88 309 1.0 2.0 0.00 0.00 0.00 72 1015.8
20260903142804 88 309 1.0 2.0 0.00 0.00 0.00 72 1015.9
20260903142718 88 309 0.0 2.0 0.00 0.00 0.00 72 1015.9
20260903142703 88 309 0.0 2.0 0.00 0.00 0.00 72 1015.8
20260903142616 88 309 0.0 2.0 0.00 0.00 0.00 72 1015.8
20260903142306 88 309 1.0 2.0 0.00 0.00 0.00 72 1015.7
20260903142203 87 309 1.0 2.0 0.00 0.00 0.00 74 1015.8
20260903142104 87 309 1.0 2.0 0.00 0.00 0.00 73 1015.8
20260903142003 87 309 1.0 2.0 0.00 0.00 0.00 73 1015.8
20260903141903 87 309 1.0 2.0 0.00 0.00 0.00 73 1015.8
20260903141703 87 309 1.0 2.0 0.00 0.00 0.00 76 1015.8
20260903141603 87 309 1.0 2.0 0.00 0.00 0.00 76 1015.8
20260903141504 87 309 1.0 2.0 0.00 0.00 0.00 76 1015.8
20260903141403 86 309 1.0 2.0 0.00 0.00 0.00 76 1015.8
20260903141303 86 309 1.0 2.0 0.00 0.00 0.00 76 1015.8
20260903141204 86 309 1.0 2.0 0.00 0.00 0.00 76 1015.8
20260903141104 86 309 1.0 2.0 0.00 0.00 0.00 76 1015.8
20260903141003 86 309 1.0 2.0 0.00 0.00 0.00 75 1015.8
20260903140904 86 309 1.0 2.0 0.00 0.00 0.00 76 1015.8
20260903140803 86 309 1.0 2.0 0.00 0.00 0.00 76 1015.8
20260903140703 86 309 0.0 2.0 0.00 0.00 0.00 77 1015.9
20260903140603 86 309 0.0 2.0 0.00 0.00 0.00 77 1015.9
20260903140517 86 309 1.0 1.0 0.00 0.00 0.00 77 1015.9
20260903140503 86 309 1.0 1.0 0.00 0.00 0.00 78 1015.9
20260903140404 85 309 1.0 2.0 0.00 0.00 0.00 78 1015.9
20260903140204 85 309 1.0 2.0 0.00 0.00 0.00 78 1015.9
20260903140004 85 309 1.0 2.0 0.00 0.00 0.00 79 1016.0
20260903135817 85 309 1.0 2.0 0.00 0.00 0.00 79 1016.0
20260903135803 85 309 1.0 2.0 0.00 0.00 0.00 80 1016.0
20260903135704 84 309 1.0 2.0 0.00 0.00 0.00 80 1016.0
20260903135618 84 309 1.0 2.0 0.00 0.00 0.00 80 1016.0
20260903135503 84 309 1.0 2.0 0.00 0.00 0.00 80 1016.0
20260903135203 84 309 1.0 2.0 0.00 0.00 0.00 81 1016.1
20260903135103 83 309 1.0 2.0 0.00 0.00 0.00 81 1016.1
20260903135004 83 309 1.0 2.0 0.00 0.00 0.00 81 1016.1
20260903134903 83 308 1.0 2.0 0.00 0.00 0.00 81 1016.1
20260903134804 83 308 1.0 2.0 0.00 0.00 0.00 82 1016.1
20260903134703 83 308 1.0 2.0 0.00 0.00 0.00 82 1016.1
20260903134503 83 308 1.0 2.0 0.00 0.00 0.00 82 1016.0
20260903134404 83 308 0.0 2.0 0.00 0.00 0.00 82 1016.1
20260903134304 82 308 0.0 2.0 0.00 0.00 0.00 82 1016.1
20260903134103 82 307 0.0 2.0 0.00 0.00 0.00 84 1016.1
20260903134003 82 306 0.0 2.0 0.00 0.00 0.00 84 1016.1
20260903133903 82 306 0.0 1.0 0.00 0.00 0.00 84 1016.1
20260903133804 82 0 0.0 0.0 0.00 0.00 0.00 84 1016.1
20260903133703 81 0 0.0 0.0 0.00 0.00 0.00 85 1016.1
20260903133503 81 0 0.0 0.0 0.00 0.00 0.00 85 1016.1
20260903133404 81 0 0.0 0.0 0.00 0.00 0.00 85 1016.1
20260903133303 81 0 0.0 0.0 0.00 0.00 0.00 86 1016.1
20260903133203 80 0 0.0 0.0 0.00 0.00 0.00 87 1016.1
20260903132904 80 0 0.0 0.0 0.00 0.00 0.00 88 1016.1
20260903132803 79 0 0.0 0.0 0.00 0.00 0.00 88 1016.1
20260903132704 79 0 0.0 0.0 0.00 0.00 0.00 88 1016.1
20260903132603 79 0 0.0 0.0 0.00 0.00 0.00 88 1016.1
20260903132503 79 0 0.0 0.0 0.00 0.00 0.00 88 1016.1
20260903132403 79 0 0.0 0.0 0.00 0.00 0.00 88 1016.0
20260903132203 79 0 0.0 0.0 0.00 0.00 0.00 89 1016.0
20260903132103 79 0 0.0 0.0 0.00 0.00 0.00 89 1016.1
20260903132003 78 0 0.0 0.0 0.00 0.00 0.00 90 1016.1
20260903131804 78 0 0.0 0.0 0.00 0.00 0.00 90 1016.1
20260903131703 78 0 0.0 0.0 0.00 0.00 0.00 90 1016.1
20260903131603 78 0 0.0 0.0 0.00 0.00 0.00 90 1016.2
20260903131503 78 0 0.0 0.0 0.00 0.00 0.00 90 1016.2
20260903131303 77 0 0.0 0.0 0.00 0.00 0.00 91 1016.2
20260903131204 77 0 0.0 0.0 0.00 0.00 0.00 91 1016.2
20260903131104 77 0 0.0 0.0 0.00 0.00 0.00 91 1016.2
20260903131004 77 0 0.0 0.0 0.00 0.00 0.00 91 1016.3
20260903130904 77 0 0.0 0.0 0.00 0.00 0.00 91 1016.3
20260903130817 77 0 0.0 0.0 0.00 0.00 0.00 91 1016.2
20260903130704 77 0 0.0 0.0 0.00 0.00 0.00 91 1016.2
20260903130504 77 0 0.0 0.0 0.00 0.00 0.00 92 1016.2
20260903130403 76 0 0.0 0.0 0.00 0.00 0.00 92 1016.2
20260903130304 76 0 0.0 0.0 0.00 0.00 0.00 92 1016.2
20260903130204 76 0 0.0 0.0 0.00 0.00 0.00 92 1016.2
20260903130104 76 0 0.0 0.0 0.00 0.00 0.00 92 1016.2
20260903130003 76 0 0.0 0.0 0.00 0.00 0.00 92 1016.1
20260903125903 76 0 0.0 0.0 0.00 0.00 0.00 92 1016.1
20260903125804 76 0 0.0 0.0 0.00 0.00 0.00 93 1016.1
20260903125704 76 0 0.0 0.0 0.00 0.00 0.00 93 1016.0
20260903125603 76 0 0.0 0.0 0.00 0.00 0.00 93 1016.0
20260903125504 75 0 0.0 0.0 0.00 0.00 0.00 93 1016.0
20260903125403 75 0 0.0 0.0 0.00 0.00 0.00 93 1016.0
20260903125305 75 0 0.0 0.0 0.00 0.00 0.00 93 1016.1
20260903125203 75 0 0.0 0.0 0.00 0.00 0.00 94 1016.1
20260903125103 75 306 0.0 1.0 0.00 0.00 0.00 94 1016.1
20260903125004 75 306 0.0 1.0 0.00 0.00 0.00 94 1016.1
20260903124903 75 306 0.0 1.0 0.00 0.00 0.00 94 1016.2
20260903124819 75 306 0.0 1.0 0.00 0.00 0.00 94 1016.2
20260903124703 74 306 0.0 1.0 0.00 0.00 0.00 94 1016.2
20260903124504 74 306 0.0 1.0 0.00 0.00 0.00 94 1016.1
20260903124403 74 306 0.0 2.0 0.00 0.00 0.00 94 1016.2
20260903124304 74 306 0.0 2.0 0.00 0.00 0.00 94 1016.2
20260903124204 74 306 0.0 2.0 0.00 0.00 0.00 94 1016.2
20260903124104 74 306 0.0 2.0 0.00 0.00 0.00 94 1016.2
20260903124003 74 306 0.0 2.0 0.00 0.00 0.00 95 1016.2
20260903123903 74 306 0.0 2.0 0.00 0.00 0.00 95 1016.3
20260903123803 74 306 0.0 2.0 0.00 0.00 0.00 95 1016.3
20260903123704 73 306 0.0 2.0 0.00 0.00 0.00 94 1016.3
20260903123603 73 306 0.0 2.0 0.00 0.00 0.00 94 1016.3
20260903123503 73 306 0.0 2.0 0.00 0.00 0.00 95 1016.2
20260903123303 73 306 0.0 2.0 0.00 0.00 0.00 94 1016.3
20260903123204 73 306 0.0 1.0 0.00 0.00 0.00 94 1016.2
20260903123103 73 306 0.0 1.0 0.00 0.00 0.00 94 1016.2
20260903123004 73 306 0.0 1.0 0.00 0.00 0.00 94 1016.2
20260903122904 72 0 0.0 0.0 0.00 0.00 0.00 94 1016.2
20260903122803 72 0 0.0 0.0 0.00 0.00 0.00 94 1016.2
20260903122703 72 0 0.0 0.0 0.00 0.00 0.00 94 1016.2
20260903122603 72 0 0.0 0.0 0.00 0.00 0.00 94 1016.3
20260903122518 72 0 0.0 0.0 0.00 0.00 0.00 94 1016.3
20260903122404 72 0 0.0 0.0 0.00 0.00 0.00 94 1016.2
20260903122317 72 0 0.0 0.0 0.00 0.00 0.00 94 1016.2
20260903122204 72 0 0.0 0.0 0.00 0.00 0.00 94 1016.2
20260903122116 72 0 0.0 0.0 0.00 0.00 0.00 94 1016.2
20260903122004 72 0 0.0 0.0 0.00 0.00 0.00 94 1016.2
20260903121703 72 0 0.0 0.0 0.00 0.00 0.00 94 1016.2
20260903121603 72 0 0.0 0.0 0.00 0.00 0.00 94 1016.3
20260903121503 72 0 0.0 0.0 0.00 0.00 0.00 94 1016.3
20260903121204 72 0 0.0 0.0 0.00 0.00 0.00 93 1016.2
20260903121104 72 0 0.0 0.0 0.00 0.00 0.00 93 1016.2
20260903121003 71 0 0.0 0.0 0.00 0.00 0.00 93 1016.2
20260903120903 71 0 0.0 0.0 0.00 0.00 0.00 93 1016.2
20260903120803 71 0 0.0 0.0 0.00 0.00 0.00 93 1016.2
20260903120704 71 0 0.0 0.0 0.00 0.00 0.00 93 1016.2
20260903120604 71 0 0.0 0.0 0.00 0.00 0.00 93 1016.1
20260903120504 71 306 0.0 1.0 0.00 0.00 0.00 93 1016.1
20260903120404 71 306 0.0 1.0 0.00 0.00 0.00 93 1016.1
20260903120303 71 306 0.0 1.0 0.00 0.00 0.00 93 1016.0
20260903120203 71 306 0.0 1.0 0.00 0.00 0.00 93 1016.0
20260903115803 71 306 0.0 1.0 0.00 0.00 0.00 93 1016.1
20260903115703 72 306 0.0 1.0 0.00 0.00 0.00 93 1016.1
20260903115603 71 306 0.0 1.0 0.00 0.00 0.00 93 1016.0
20260903115503 72 0 0.0 0.0 0.00 0.00 0.00 93 1016.0
20260903115403 71 0 0.0 0.0 0.00 0.00 0.00 93 1016.0
20260903115305 71 0 0.0 0.0 0.00 0.00 0.00 93 1015.9
20260903115203 72 0 0.0 0.0 0.00 0.00 0.00 93 1015.9
20260903115104 71 0 0.0 0.0 0.00 0.00 0.00 93 1015.9
20260903115004 71 0 0.0 0.0 0.00 0.00 0.00 93 1015.9
20260903114903 71 0 0.0 0.0 0.00 0.00 0.00 93 1015.9
20260903114803 71 0 0.0 0.0 0.00 0.00 0.00 93 1015.9
20260903114704 71 0 0.0 0.0 0.00 0.00 0.00 93 1015.9
20260903114604 71 0 0.0 0.0 0.00 0.00 0.00 93 1015.9
20260903114504 71 0 0.0 0.0 0.00 0.00 0.00 93 1015.9
20260903114403 71 0 0.0 0.0 0.00 0.00 0.00 93 1015.9
20260903114304 71 0 0.0 0.0 0.00 0.00 0.00 93 1015.9
20260903114203 71 0 0.0 0.0 0.00 0.00 0.00 93 1015.8
20260903114103 71 0 0.0 0.0 0.00 0.00 0.00 93 1015.8
20260903114003 71 0 0.0 0.0 0.00 0.00 0.00 93 1015.8
20260903113917 71 0 0.0 0.0 0.00 0.00 0.00 92 1015.8
20260903113604 71 0 0.0 0.0 0.00 0.00 0.00 93 1015.8
20260903113504 71 0 0.0 0.0 0.00 0.00 0.00 93 1015.7
20260903113403 71 0 0.0 0.0 0.00 0.00 0.00 93 1015.7
20260903113303 71 0 0.0 0.0 0.00 0.00 0.00 93 1015.6
20260903113204 71 0 0.0 0.0 0.00 0.00 0.00 93 1015.7
20260903113103 72 0 0.0 0.0 0.00 0.00 0.00 93 1015.7
20260903113003 72 0 0.0 0.0 0.00 0.00 0.00 93 1015.7
20260903112904 72 0 0.0 0.0 0.00 0.00 0.00 93 1015.7
20260903112803 72 0 0.0 0.0 0.00 0.00 0.00 93 1015.7
20260903112603 72 0 0.0 0.0 0.00 0.00 0.00 92 1015.7
20260903112503 72 0 0.0 0.0 0.00 0.00 0.00 92 1015.6
20260903112403 72 0 0.0 0.0 0.00 0.00 0.00 92 1015.7
20260903112317 72 0 0.0 0.0 0.00 0.00 0.00 92 1015.7
20260903112204 72 0 0.0 0.0 0.00 0.00 0.00 92 1015.6
20260903112118 72 0 0.0 0.0 0.00 0.00 0.00 92 1015.6
20260903112004 72 0 0.0 0.0 0.00 0.00 0.00 92 1015.6
20260903111803 72 0 0.0 0.0 0.00 0.00 0.00 92 1015.6
20260903111703 72 0 0.0 0.0 0.00 0.00 0.00 92 1015.6
20260903111603 72 0 0.0 0.0 0.00 0.00 0.00 92 1015.6
20260903111503 72 0 0.0 0.0 0.00 0.00 0.00 92 1015.5
20260903111403 72 0 0.0 0.0 0.00 0.00 0.00 92 1015.5
20260903111304 72 0 0.0 0.0 0.00 0.00 0.00 92 1015.5
20260903111003 72 0 0.0 0.0 0.00 0.00 0.00 92 1015.5
20260903110903 72 0 0.0 0.0 0.00 0.00 0.00 92 1015.5
20260903110704 72 0 0.0 0.0 0.00 0.00 0.00 92 1015.5
20260903110603 72 0 0.0 0.0 0.00 0.00 0.00 92 1015.5
20260903110504 72 0 0.0 0.0 0.00 0.00 0.00 92 1015.5
20260903110303 72 0 0.0 0.0 0.00 0.00 0.00 92 1015.5
20260903110203 72 0 0.0 0.0 0.00 0.00 0.00 92 1015.5
20260903110118 72 0 0.0 0.0 0.00 0.00 0.00 92 1015.5
20260903110104 72 0 0.0 0.0 0.00 0.00 0.00 92 1015.4
20260903110004 72 0 0.0 0.0 0.00 0.00 0.00 92 1015.4
20260903105803 72 0 0.0 0.0 0.00 0.00 0.00 92 1015.4
20260903105704 72 0 0.0 0.0 0.00 0.00 0.00 92 1015.4
20260903105603 72 0 0.0 0.0 0.00 0.00 0.00 92 1015.4
20260903105504 72 0 0.0 0.0 0.00 0.00 0.00 92 1015.4
20260903105403 72 0 0.0 0.0 0.00 0.00 0.00 92 1015.4
20260903105306 72 0 0.0 0.0 0.00 0.00 0.00 92 1015.4
20260903105203 72 0 0.0 0.0 0.00 0.00 0.00 92 1015.4
20260903105103 72 0 0.0 0.0 0.00 0.00 0.00 92 1015.4
20260903105003 72 0 0.0 0.0 0.00 0.00 0.00 92 1015.4
20260903104903 72 0 0.0 0.0 0.00 0.00 0.00 92 1015.4
20260903104803 72 0 0.0 0.0 0.00 0.00 0.00 92 1015.4
20260903104703 72 0 0.0 0.0 0.00 0.00 0.00 92 1015.4
20260903104603 72 0 0.0 0.0 0.00 0.00 0.00 92 1015.4
20260903104503 72 0 0.0 0.0 0.00 0.00 0.00 92 1015.4
20260903104403 72 0 0.0 0.0 0.00 0.00 0.00 92 1015.3
20260903104303 72 0 0.0 0.0 0.00 0.00 0.00 92 1015.3
20260903104203 72 0 0.0 0.0 0.00 0.00 0.00 92 1015.3
20260903104103 72 0 0.0 0.0 0.00 0.00 0.00 92 1015.3
20260903104003 72 0 0.0 0.0 0.00 0.00 0.00 92 1015.3
20260903103903 72 0 0.0 0.0 0.00 0.00 0.00 92 1015.3
20260903103803 72 0 0.0 0.0 0.00 0.00 0.00 92 1015.3
20260903103703 72 0 0.0 0.0 0.00 0.00 0.00 92 1015.3
20260903103604 72 0 0.0 0.0 0.00 0.00 0.00 92 1015.3
20260903103503 72 0 0.0 0.0 0.00 0.00 0.00 92 1015.3
20260903103403 72 0 0.0 0.0 0.00 0.00 0.00 92 1015.3
20260903103304 72 0 0.0 0.0 0.00 0.00 0.00 92 1015.3
20260903103203 72 0 0.0 0.0 0.00 0.00 0.00 92 1015.3
20260903103104 72 0 0.0 0.0 0.00 0.00 0.00 92 1015.2
20260903102903 72 0 0.0 0.0 0.00 0.00 0.00 92 1015.2
20260903102803 72 0 0.0 0.0 0.00 0.00 0.00 92 1015.2
20260903102704 72 0 0.0 0.0 0.00 0.00 0.00 92 1015.2
20260903102604 72 0 0.0 0.0 0.00 0.00 0.00 92 1015.2
20260903102503 72 0 0.0 0.0 0.00 0.00 0.00 92 1015.2
20260903102418 72 0 0.0 0.0 0.00 0.00 0.00 91 1015.2
20260903102306 72 0 0.0 0.0 0.00 0.00 0.00 91 1015.2
20260903102103 72 0 0.0 0.0 0.00 0.00 0.00 92 1015.2
20260903102003 72 0 0.0 0.0 0.00 0.00 0.00 92 1015.1
20260903101803 72 0 0.0 0.0 0.00 0.00 0.00 92 1015.1
20260903101703 72 0 0.0 0.0 0.00 0.00 0.00 91 1015.1
20260903101504 72 0 0.0 0.0 0.00 0.00 0.00 92 1015.1
20260903101403 72 0 0.0 0.0 0.00 0.00 0.00 92 1015.1
20260903101303 72 0 0.0 0.0 0.00 0.00 0.00 92 1015.1
20260903101204 72 0 0.0 0.0 0.00 0.00 0.00 92 1015.0
20260903101003 72 0 0.0 0.0 0.00 0.00 0.00 92 1015.0
20260903100903 72 0 0.0 0.0 0.00 0.00 0.00 92 1015.0
20260903100803 72 0 0.0 0.0 0.00 0.00 0.00 92 1015.0
20260903100704 72 0 0.0 0.0 0.00 0.00 0.00 92 1015.0
20260903100503 72 0 0.0 0.0 0.00 0.00 0.00 92 1015.0
20260903100403 72 0 0.0 0.0 0.00 0.00 0.00 92 1015.0
20260903100303 72 0 0.0 0.0 0.00 0.00 0.00 92 1014.9
20260903100203 72 0 0.0 0.0 0.00 0.00 0.00 92 1015.0
20260903100104 72 0 0.0 0.0 0.00 0.00 0.00 92 1015.0
20260903100003 72 0 0.0 0.0 0.00 0.00 0.00 92 1014.9
20260903095903 72 0 0.0 0.0 0.00 0.00 0.00 92 1015.0
20260903095803 72 0 0.0 0.0 0.00 0.00 0.00 92 1015.0
20260903095704 72 0 0.0 0.0 0.00 0.00 0.00 92 1014.9
20260903095603 72 0 0.0 0.0 0.00 0.00 0.00 92 1014.9
20260903095503 72 0 0.0 0.0 0.00 0.00 0.00 92 1014.9
20260903095403 72 0 0.0 0.0 0.00 0.00 0.00 92 1014.9
20260903095306 72 0 0.0 0.0 0.00 0.00 0.00 92 1014.9
20260903095203 72 0 0.0 0.0 0.00 0.00 0.00 92 1015.0
20260903095104 72 0 0.0 0.0 0.00 0.00 0.00 92 1015.0
20260903095004 72 0 0.0 0.0 0.00 0.00 0.00 92 1014.9
20260903094904 72 0 0.0 0.0 0.00 0.00 0.00 92 1015.0
20260903094804 72 0 0.0 0.0 0.00 0.00 0.00 91 1015.0
20260903094718 72 0 0.0 0.0 0.00 0.00 0.00 91 1015.0
20260903094603 72 0 0.0 0.0 0.00 0.00 0.00 91 1015.0
20260903094303 72 0 0.0 0.0 0.00 0.00 0.00 91 1015.0
20260903094204 72 0 0.0 0.0 0.00 0.00 0.00 91 1015.0
20260903094104 72 0 0.0 0.0 0.00 0.00 0.00 91 1015.0
20260903094004 72 0 0.0 0.0 0.00 0.00 0.00 91 1015.0
20260903093903 72 0 0.0 0.0 0.00 0.00 0.00 91 1015.0
20260903093803 72 0 0.0 0.0 0.00 0.00 0.00 91 1015.0
20260903093704 72 0 0.0 0.0 0.00 0.00 0.00 91 1015.0
20260903093604 72 0 0.0 0.0 0.00 0.00 0.00 91 1015.0
20260903093503 72 0 0.0 0.0 0.00 0.00 0.00 91 1015.0
20260903093403 72 0 0.0 0.0 0.00 0.00 0.00 91 1015.0
20260903093304 72 0 0.0 0.0 0.00 0.00 0.00 91 1015.0
20260903093204 72 0 0.0 0.0 0.00 0.00 0.00 91 1015.0
20260903093103 72 0 0.0 0.0 0.00 0.00 0.00 91 1015.0
20260903093004 72 0 0.0 0.0 0.00 0.00 0.00 91 1015.0
20260903092905 72 0 0.0 0.0 0.00 0.00 0.00 91 1015.0
20260903092803 72 0 0.0 0.0 0.00 0.00 0.00 91 1015.0
20260903092703 73 0 0.0 0.0 0.00 0.00 0.00 91 1015.0
20260903092616 73 0 0.0 0.0 0.00 0.00 0.00 91 1015.0
20260903092306 73 0 0.0 0.0 0.00 0.00 0.00 91 1015.0
20260903092204 73 0 0.0 0.0 0.00 0.00 0.00 91 1015.0
20260903092104 73 0 0.0 0.0 0.00 0.00 0.00 91 1015.0
20260903092003 73 0 0.0 0.0 0.00 0.00 0.00 91 1015.0
20260903091917 73 0 0.0 0.0 0.00 0.00 0.00 91 1015.0
20260903091803 73 0 0.0 0.0 0.00 0.00 0.00 91 1015.0
20260903091603 73 0 0.0 0.0 0.00 0.00 0.00 91 1015.0
20260903091504 73 0 0.0 0.0 0.00 0.00 0.00 91 1015.0
20260903091404 73 0 0.0 0.0 0.00 0.00 0.00 91 1015.0
20260903091303 73 0 0.0 0.0 0.00 0.00 0.00 91 1015.1
20260903091204 73 0 0.0 0.0 0.00 0.00 0.00 91 1015.1
20260903091104 73 0 0.0 0.0 0.00 0.00 0.00 91 1015.1
20260903090903 73 0 0.0 0.0 0.00 0.00 0.00 91 1015.1
20260903090804 73 0 0.0 0.0 0.00 0.00 0.00 91 1015.0
20260903090703 73 0 0.0 0.0 0.00 0.00 0.00 91 1015.0
20260903090504 73 0 0.0 0.0 0.00 0.00 0.00 90 1015.1
20260903090403 73 0 0.0 0.0 0.00 0.00 0.00 90 1015.1
20260903090303 73 0 0.0 0.0 0.00 0.00 0.00 90 1015.0
20260903090204 73 0 0.0 0.0 0.00 0.00 0.00 90 1015.0
20260903090004 73 0 0.0 0.0 0.00 0.00 0.00 90 1015.1
20260903085903 73 0 0.0 0.0 0.00 0.00 0.00 90 1015.1
20260903085803 73 0 0.0 0.0 0.00 0.00 0.00 90 1015.0
20260903085703 73 0 0.0 0.0 0.00 0.00 0.00 90 1015.0
20260903085603 73 0 0.0 0.0 0.00 0.00 0.00 90 1015.0
20260903085504 73 0 0.0 0.0 0.00 0.00 0.00 90 1015.1
20260903085417 73 0 0.0 0.0 0.00 0.00 0.00 90 1015.1
20260903085305 73 0 0.0 0.0 0.00 0.00 0.00 90 1015.1
20260903085103 73 0 0.0 0.0 0.00 0.00 0.00 90 1015.2
20260903085003 73 0 0.0 0.0 0.00 0.00 0.00 90 1015.2
20260903084918 73 0 0.0 0.0 0.00 0.00 0.00 90 1015.2
20260903084803 73 0 0.0 0.0 0.00 0.00 0.00 90 1015.2
20260903084604 73 0 0.0 0.0 0.00 0.00 0.00 90 1015.2
20260903084503 73 0 0.0 0.0 0.00 0.00 0.00 90 1015.2
20260903084417 73 0 0.0 0.0 0.00 0.00 0.00 90 1015.2
20260903084303 73 0 0.0 0.0 0.00 0.00 0.00 90 1015.2
20260903084104 73 0 0.0 0.0 0.00 0.00 0.00 90 1015.1
20260903084004 73 0 0.0 0.0 0.00 0.00 0.00 90 1015.1
20260903083804 73 0 0.0 0.0 0.00 0.00 0.00 90 1015.1
20260903083704 73 0 0.0 0.0 0.00 0.00 0.00 90 1015.0
20260903083604 73 0 0.0 0.0 0.00 0.00 0.00 90 1015.0
20260903083504 73 0 0.0 0.0 0.00 0.00 0.00 89 1015.0
20260903083403 73 0 0.0 0.0 0.00 0.00 0.00 89 1015.0
20260903083303 73 0 0.0 0.0 0.00 0.00 0.00 89 1015.0
20260903083203 73 0 0.0 0.0 0.00 0.00 0.00 89 1015.1
20260903083103 73 0 0.0 0.0 0.00 0.00 0.00 89 1015.1
20260903083004 73 0 0.0 0.0 0.00 0.00 0.00 89 1015.1
20260903082903 73 0 0.0 0.0 0.00 0.00 0.00 89 1015.1
20260903082804 73 0 0.0 0.0 0.00 0.00 0.00 90 1015.1
20260903082703 73 0 0.0 0.0 0.00 0.00 0.00 90 1015.1
20260903082603 73 0 0.0 0.0 0.00 0.00 0.00 90 1015.1
20260903082504 73 0 0.0 0.0 0.00 0.00 0.00 90 1015.1
20260903082403 73 0 0.0 0.0 0.00 0.00 0.00 89 1015.1
20260903082306 73 0 0.0 0.0 0.00 0.00 0.00 89 1015.1
20260903082203 73 0 0.0 0.0 0.00 0.00 0.00 89 1015.1
20260903082117 73 0 0.0 0.0 0.00 0.00 0.00 89 1015.1
20260903082103 73 0 0.0 0.0 0.00 0.00 0.00 89 1015.0
20260903082004 73 0 0.0 0.0 0.00 0.00 0.00 89 1015.0
20260903081918 73 0 0.0 0.0 0.00 0.00 0.00 89 1015.0
20260903081804 73 0 0.0 0.0 0.00 0.00 0.00 90 1015.0
20260903081604 73 0 0.0 0.0 0.00 0.00 0.00 90 1015.0
20260903081503 73 0 0.0 0.0 0.00 0.00 0.00 90 1015.0
20260903081403 73 0 0.0 0.0 0.00 0.00 0.00 89 1014.9
20260903081203 73 0 0.0 0.0 0.00 0.00 0.00 89 1015.0
20260903081104 74 0 0.0 0.0 0.00 0.00 0.00 89 1015.0
20260903081004 74 0 0.0 0.0 0.00 0.00 0.00 89 1015.0
20260903080918 73 0 0.0 0.0 0.00 0.00 0.00 89 1014.9
20260903080903 74 0 0.0 0.0 0.00 0.00 0.00 89 1014.9
20260903080803 74 0 0.0 0.0 0.00 0.00 0.00 89 1014.9
20260903080603 74 0 0.0 0.0 0.00 0.00 0.00 89 1014.9
20260903080504 74 0 0.0 0.0 0.00 0.00 0.00 89 1014.9
20260903080403 74 0 0.0 0.0 0.00 0.00 0.00 89 1014.9
20260903080318 74 0 0.0 0.0 0.00 0.00 0.00 89 1014.9
20260903080303 74 0 0.0 0.0 0.00 0.00 0.00 89 1014.8
20260903080003 74 0 0.0 0.0 0.00 0.00 0.00 89 1014.8
20260903075903 74 0 0.0 0.0 0.00 0.00 0.00 89 1014.9
20260903075803 74 0 0.0 0.0 0.00 0.00 0.00 89 1014.9
20260903075703 74 0 0.0 0.0 0.00 0.00 0.00 89 1014.9
20260903075603 74 0 0.0 0.0 0.00 0.00 0.00 89 1014.8
20260903075503 74 0 0.0 0.0 0.00 0.00 0.00 89 1014.8
20260903075403 74 0 0.0 0.0 0.00 0.00 0.00 89 1014.8
20260903075306 74 0 0.0 0.0 0.00 0.00 0.00 89 1014.8
20260903075203 74 0 0.0 0.0 0.00 0.00 0.00 89 1014.8
20260903075103 74 0 0.0 0.0 0.00 0.00 0.00 89 1014.8
20260903075003 74 0 0.0 0.0 0.00 0.00 0.00 89 1014.8
20260903074904 74 0 0.0 0.0 0.00 0.00 0.00 89 1014.8
20260903074803 74 0 0.0 0.0 0.00 0.00 0.00 89 1014.9
20260903074516 74 0 0.0 0.0 0.00 0.00 0.00 89 1014.9
20260903074503 74 0 0.0 0.0 0.00 0.00 0.00 89 1014.8
20260903074403 74 0 0.0 0.0 0.00 0.00 0.00 89 1014.8
20260903074318 74 0 0.0 0.0 0.00 0.00 0.00 89 1014.8
20260903074204 74 0 0.0 0.0 0.00 0.00 0.00 89 1014.8
20260903074004 74 0 0.0 0.0 0.00 0.00 0.00 89 1014.8
20260903073903 74 0 0.0 0.0 0.00 0.00 0.00 89 1014.8
20260903073603 74 0 0.0 0.0 0.00 0.00 0.00 89 1014.8
20260903073504 74 0 0.0 0.0 0.00 0.00 0.00 89 1014.8
20260903073403 74 0 0.0 0.0 0.00 0.00 0.00 89 1014.8
20260903073103 74 0 0.0 0.0 0.00 0.00 0.00 89 1014.8
20260903073004 74 0 0.0 0.0 0.00 0.00 0.00 89 1014.8
20260903072903 74 0 0.0 0.0 0.00 0.00 0.00 89 1014.8
20260903072804 74 0 0.0 0.0 0.00 0.00 0.00 89 1014.8
20260903072703 74 0 0.0 0.0 0.00 0.00 0.00 89 1014.8
20260903072403 74 0 0.0 0.0 0.00 0.00 0.00 88 1014.8
20260903072306 74 0 0.0 0.0 0.00 0.00 0.00 88 1014.8
20260903072203 74 0 0.0 0.0 0.00 0.00 0.00 88 1014.9
20260903072103 74 0 0.0 0.0 0.00 0.00 0.00 88 1014.9
20260903072003 74 0 0.0 0.0 0.00 0.00 0.00 88 1014.9
20260903071903 74 0 0.0 0.0 0.00 0.00 0.00 88 1014.9
20260903071803 74 0 0.0 0.0 0.00 0.00 0.00 88 1014.8
20260903071703 74 0 0.0 0.0 0.00 0.00 0.00 88 1014.8
20260903071603 74 0 0.0 0.0 0.00 0.00 0.00 88 1014.8
20260903071504 74 0 0.0 0.0 0.00 0.00 0.00 88 1014.9
20260903071419 74 0 0.0 0.0 0.00 0.00 0.00 88 1014.9
20260903071404 74 0 0.0 0.0 0.00 0.00 0.00 88 1014.8
20260903071303 74 0 0.0 0.0 0.00 0.00 0.00 88 1014.8
20260903071103 74 0 0.0 0.0 0.00 0.00 0.00 88 1014.8
20260903071003 74 0 0.0 0.0 0.00 0.00 0.00 88 1014.8
20260903070903 74 0 0.0 0.0 0.00 0.00 0.00 88 1014.8
20260903070803 74 0 0.0 0.0 0.00 0.00 0.00 88 1014.8
20260903070717 74 0 0.0 0.0 0.00 0.00 0.00 88 1014.8
20260903070403 74 0 0.0 0.0 0.00 0.00 0.00 88 1014.9
20260903070303 74 0 0.0 0.0 0.00 0.00 0.00 88 1014.9
20260903070218 74 0 0.0 0.0 0.00 0.00 0.00 88 1014.9
20260903070103 74 0 0.0 0.0 0.00 0.00 0.00 88 1014.8
20260903065903 74 0 0.0 0.0 0.00 0.00 0.00 88 1014.9
20260903065803 74 0 0.0 0.0 0.00 0.00 0.00 88 1014.9
20260903065704 74 0 0.0 0.0 0.00 0.00 0.00 88 1014.8
20260903065604 74 0 0.0 0.0 0.00 0.00 0.00 88 1014.8
20260903065503 74 0 0.0 0.0 0.00 0.00 0.00 88 1014.8
20260903065403 74 0 0.0 0.0 0.00 0.00 0.00 88 1014.9
20260903065306 74 0 0.0 0.0 0.00 0.00 0.00 88 1014.9
20260903065203 74 0 0.0 0.0 0.00 0.00 0.00 88 1014.9
20260903065103 74 0 0.0 0.0 0.00 0.00 0.00 88 1014.9
20260903065004 74 0 0.0 0.0 0.00 0.00 0.00 88 1014.9
20260903064904 74 0 0.0 0.0 0.00 0.00 0.00 88 1014.9
20260903064803 74 0 0.0 0.0 0.00 0.00 0.00 88 1014.9
20260903064703 75 0 0.0 0.0 0.00 0.00 0.00 88 1014.9
20260903064603 75 0 0.0 0.0 0.00 0.00 0.00 88 1014.9
20260903064503 75 0 0.0 0.0 0.00 0.00 0.00 88 1014.9
20260903064403 75 0 0.0 0.0 0.00 0.00 0.00 88 1014.9
20260903064317 75 0 0.0 0.0 0.00 0.00 0.00 88 1014.9
20260903064118 75 0 0.0 0.0 0.00 0.00 0.00 87 1014.9
20260903064004 75 0 0.0 0.0 0.00 0.00 0.00 87 1014.9
20260903063803 75 0 0.0 0.0 0.00 0.00 0.00 88 1015.0
20260903063703 75 0 0.0 0.0 0.00 0.00 0.00 88 1015.0
20260903063603 75 0 0.0 0.0 0.00 0.00 0.00 87 1015.0
20260903063503 75 0 0.0 0.0 0.00 0.00 0.00 87 1015.0
20260903063404 75 0 0.0 0.0 0.00 0.00 0.00 87 1014.9
20260903063303 75 0 0.0 0.0 0.00 0.00 0.00 87 1015.0
20260903063204 75 0 0.0 0.0 0.00 0.00 0.00 87 1015.0
20260903063103 75 0 0.0 0.0 0.00 0.00 0.00 87 1014.9
20260903063004 75 0 0.0 0.0 0.00 0.00 0.00 87 1014.9
20260903062903 75 0 0.0 0.0 0.00 0.00 0.00 87 1014.9
20260903062803 75 0 0.0 0.0 0.00 0.00 0.00 87 1014.9
20260903062503 75 0 0.0 0.0 0.00 0.00 0.00 87 1015.0
20260903062404 75 0 0.0 0.0 0.00 0.00 0.00 87 1015.0
20260903062306 75 0 0.0 0.0 0.00 0.00 0.00 87 1015.0
20260903062204 75 0 0.0 0.0 0.00 0.00 0.00 87 1015.0
20260903062103 75 0 0.0 0.0 0.00 0.00 0.00 87 1015.0
20260903062003 75 0 0.0 0.0 0.00 0.00 0.00 87 1015.0
20260903061903 75 0 0.0 0.0 0.00 0.00 0.00 87 1015.0
20260903061804 75 0 0.0 0.0 0.00 0.00 0.00 87 1015.0
20260903061704 75 0 0.0 0.0 0.00 0.00 0.00 87 1015.0
20260903061503 75 0 0.0 0.0 0.00 0.00 0.00 87 1014.9
20260903061403 75 0 0.0 0.0 0.00 0.00 0.00 87 1014.9
20260903061303 75 0 0.0 0.0 0.00 0.00 0.00 87 1015.0
20260903061203 75 0 0.0 0.0 0.00 0.00 0.00 87 1015.0
20260903061103 75 0 0.0 0.0 0.00 0.00 0.00 86 1014.9
20260903061003 75 0 0.0 0.0 0.00 0.00 0.00 86 1014.9
20260903060903 75 0 0.0 0.0 0.00 0.00 0.00 86 1014.9
20260903060803 75 0 0.0 0.0 0.00 0.00 0.00 86 1014.9
20260903060703 75 0 0.0 0.0 0.00 0.00 0.00 86 1014.9
20260903060603 75 0 0.0 0.0 0.00 0.00 0.00 86 1014.9
20260903060503 75 0 0.0 0.0 0.00 0.00 0.00 86 1014.9
20260903060403 75 0 0.0 0.0 0.00 0.00 0.00 86 1014.9
20260903060304 75 0 0.0 0.0 0.00 0.00 0.00 86 1014.9
20260903060204 75 0 0.0 0.0 0.00 0.00 0.00 86 1014.9
20260903060103 75 0 0.0 0.0 0.00 0.00 0.00 86 1014.9
20260903060003 75 0 0.0 0.0 0.00 0.00 0.00 86 1015.0
20260903055904 75 0 0.0 0.0 0.00 0.00 0.00 86 1015.0
20260903055603 75 0 0.0 0.0 0.00 0.00 0.00 86 1014.9
20260903055504 75 0 0.0 0.0 0.00 0.00 0.00 86 1014.9
20260903055403 75 0 0.0 0.0 0.00 0.00 0.00 86 1014.9
20260903055306 75 0 0.0 0.0 0.00 0.00 0.00 86 1015.0
20260903055217 75 0 0.0 0.0 0.00 0.00 0.00 86 1014.9
20260903055103 75 0 0.0 0.0 0.00 0.00 0.00 86 1014.9
20260903055019 75 0 0.0 0.0 0.00 0.00 0.00 86 1014.9
20260903054903 75 0 0.0 0.0 0.00 0.00 0.00 86 1014.9
20260903054703 75 0 0.0 0.0 0.00 0.00 0.00 86 1014.9
20260903054603 75 0 0.0 0.0 0.00 0.00 0.00 86 1014.9
20260903054303 75 0 0.0 0.0 0.00 0.00 0.00 86 1014.9
20260903054204 75 0 0.0 0.0 0.00 0.00 0.00 86 1014.9
20260903053903 75 0 0.0 0.0 0.00 0.00 0.00 86 1014.9
20260903053803 75 0 0.0 0.0 0.00 0.00 0.00 86 1014.9
20260903053704 75 0 0.0 0.0 0.00 0.00 0.00 85 1014.9
20260903053503 75 0 0.0 0.0 0.00 0.00 0.00 85 1014.9
20260903053404 75 0 0.0 0.0 0.00 0.00 0.00 85 1014.9
20260903053303 75 0 0.0 0.0 0.00 0.00 0.00 85 1014.9
20260903053204 75 0 0.0 0.0 0.00 0.00 0.00 85 1014.9
20260903053003 76 0 0.0 0.0 0.00 0.00 0.00 86 1014.9
20260903052904 76 0 0.0 0.0 0.00 0.00 0.00 86 1014.9
20260903052803 76 0 0.0 0.0 0.00 0.00 0.00 86 1014.9
20260903052703 76 0 0.0 0.0 0.00 0.00 0.00 86 1015.0
20260903052603 76 0 0.0 0.0 0.00 0.00 0.00 86 1014.9
20260903052503 76 0 0.0 0.0 0.00 0.00 0.00 86 1014.9
20260903052403 76 0 0.0 0.0 0.00 0.00 0.00 85 1015.0
20260903052307 76 0 0.0 0.0 0.00 0.00 0.00 85 1015.0
20260903052203 76 0 0.0 0.0 0.00 0.00 0.00 85 1014.9
20260903052103 76 0 0.0 0.0 0.00 0.00 0.00 85 1014.9
20260903052003 76 0 0.0 0.0 0.00 0.00 0.00 85 1014.9
20260903051903 76 0 0.0 0.0 0.00 0.00 0.00 85 1015.0
20260903051703 76 0 0.0 0.0 0.00 0.00 0.00 85 1014.9
20260903051603 76 0 0.0 0.0 0.00 0.00 0.00 85 1014.9
20260903051504 76 0 0.0 0.0 0.00 0.00 0.00 85 1014.9
20260903051404 76 0 0.0 0.0 0.00 0.00 0.00 85 1014.9
20260903051303 76 0 0.0 0.0 0.00 0.00 0.00 85 1014.9
20260903051203 76 0 0.0 0.0 0.00 0.00 0.00 85 1014.9
20260903051103 76 0 0.0 0.0 0.00 0.00 0.00 85 1015.0
20260903051003 76 0 0.0 0.0 0.00 0.00 0.00 85 1015.0
20260903050804 76 0 0.0 0.0 0.00 0.00 0.00 85 1015.0
20260903050704 76 0 0.0 0.0 0.00 0.00 0.00 85 1015.0
20260903050603 76 0 0.0 0.0 0.00 0.00 0.00 85 1014.9
20260903050503 76 0 0.0 0.0 0.00 0.00 0.00 85 1014.9
20260903050403 76 0 0.0 0.0 0.00 0.00 0.00 84 1014.9
20260903050304 76 0 0.0 0.0 0.00 0.00 0.00 84 1014.9
20260903050005 76 0 0.0 0.0 0.00 0.00 0.00 85 1014.9
20260903045903 76 0 0.0 0.0 0.00 0.00 0.00 85 1014.9
20260903045803 76 0 0.0 0.0 0.00 0.00 0.00 85 1014.9
20260903045704 76 0 0.0 0.0 0.00 0.00 0.00 85 1014.9
20260903045603 76 0 0.0 0.0 0.00 0.00 0.00 85 1014.9
20260903045503 76 0 0.0 0.0 0.00 0.00 0.00 85 1014.9
20260903045306 76 0 0.0 0.0 0.00 0.00 0.00 84 1014.9
20260903045204 76 0 0.0 0.0 0.00 0.00 0.00 84 1014.9
20260903045104 76 0 0.0 0.0 0.00 0.00 0.00 84 1014.8
20260903045004 76 0 0.0 0.0 0.00 0.00 0.00 84 1014.8
20260903044903 76 0 0.0 0.0 0.00 0.00 0.00 84 1014.9
20260903044803 76 0 0.0 0.0 0.00 0.00 0.00 84 1014.9
20260903044703 76 0 0.0 0.0 0.00 0.00 0.00 84 1014.9
20260903044603 76 0 0.0 0.0 0.00 0.00 0.00 84 1014.8
20260903044504 76 0 0.0 0.0 0.00 0.00 0.00 84 1014.9
20260903044404 76 0 0.0 0.0 0.00 0.00 0.00 84 1014.9
20260903044303 76 0 0.0 0.0 0.00 0.00 0.00 84 1014.9
20260903044203 76 0 0.0 0.0 0.00 0.00 0.00 84 1014.9
20260903044004 76 0 0.0 0.0 0.00 0.00 0.00 84 1014.9
20260903043904 76 0 0.0 0.0 0.00 0.00 0.00 84 1014.9
20260903043704 76 0 0.0 0.0 0.00 0.00 0.00 84 1014.9
20260903043603 76 0 0.0 0.0 0.00 0.00 0.00 84 1014.9
20260903043504 76 0 0.0 0.0 0.00 0.00 0.00 84 1014.8
20260903043403 76 0 0.0 0.0 0.00 0.00 0.00 84 1014.8
20260903043303 77 0 0.0 0.0 0.00 0.00 0.00 84 1014.9
20260903043204 77 0 0.0 0.0 0.00 0.00 0.00 84 1014.9
20260903043103 77 0 0.0 0.0 0.00 0.00 0.00 84 1014.9
20260903042903 77 0 0.0 0.0 0.00 0.00 0.00 84 1014.9
20260903042804 77 0 0.0 0.0 0.00 0.00 0.00 84 1014.9
20260903042718 77 0 0.0 0.0 0.00 0.00 0.00 83 1014.9
20260903042603 77 0 0.0 0.0 0.00 0.00 0.00 83 1014.9
20260903042517 77 0 0.0 0.0 0.00 0.00 0.00 83 1014.9
20260903042403 77 0 0.0 0.0 0.00 0.00 0.00 83 1014.9
20260903042203 77 0 0.0 0.0 0.00 0.00 0.00 83 1014.9
20260903042104 77 0 0.0 0.0 0.00 0.00 0.00 83 1014.9
20260903042003 77 0 0.0 0.0 0.00 0.00 0.00 83 1014.9
20260903041904 77 0 0.0 0.0 0.00 0.00 0.00 83 1014.9
20260903041803 77 0 0.0 0.0 0.00 0.00 0.00 83 1014.9
20260903041703 77 0 0.0 0.0 0.00 0.00 0.00 83 1014.9
20260903041603 77 0 0.0 0.0 0.00 0.00 0.00 83 1014.9
20260903041503 77 0 0.0 0.0 0.00 0.00 0.00 83 1014.9
20260903041418 77 0 0.0 0.0 0.00 0.00 0.00 83 1014.9
20260903041304 77 0 0.0 0.0 0.00 0.00 0.00 83 1014.9
20260903041104 77 0 0.0 0.0 0.00 0.00 0.00 82 1014.9
20260903041004 77 0 0.0 0.0 0.00 0.00 0.00 82 1014.9
20260903040903 77 0 0.0 0.0 0.00 0.00 0.00 82 1014.9
20260903040819 77 0 0.0 0.0 0.00 0.00 0.00 82 1014.9
20260903040503 77 0 0.0 0.0 0.00 0.00 0.00 82 1014.9
20260903040403 77 0 0.0 0.0 0.00 0.00 0.00 82 1014.9
20260903040204 77 0 0.0 0.0 0.00 0.00 0.00 82 1014.8
20260903040103 77 0 0.0 0.0 0.00 0.00 0.00 82 1014.8
20260903040003 77 0 0.0 0.0 0.00 0.00 0.00 82 1014.8
20260903035903 77 0 0.0 0.0 0.00 0.00 0.00 82 1014.8
20260903035804 77 0 0.0 0.0 0.00 0.00 0.00 82 1014.8
20260903035703 77 0 0.0 0.0 0.00 0.00 0.00 82 1014.8
20260903035603 77 0 0.0 0.0 0.00 0.00 0.00 82 1014.9
20260903035504 77 0 0.0 0.0 0.00 0.00 0.00 82 1014.9
20260903035403 77 0 0.0 0.0 0.00 0.00 0.00 82 1014.8
20260903035306 77 0 0.0 0.0 0.00 0.00 0.00 82 1014.8
20260903035204 77 0 0.0 0.0 0.00 0.00 0.00 82 1014.8
20260903035103 77 0 0.0 0.0 0.00 0.00 0.00 82 1014.8
20260903035004 77 0 0.0 0.0 0.00 0.00 0.00 82 1014.8
20260903034903 78 0 0.0 0.0 0.00 0.00 0.00 82 1014.9
20260903034703 78 0 0.0 0.0 0.00 0.00 0.00 82 1014.9
20260903034604 78 0 0.0 0.0 0.00 0.00 0.00 82 1014.9
20260903034503 78 0 0.0 0.0 0.00 0.00 0.00 82 1014.9
20260903034404 78 0 0.0 0.0 0.00 0.00 0.00 81 1014.9
20260903034303 78 0 0.0 0.0 0.00 0.00 0.00 81 1014.9
20260903034103 78 0 0.0 0.0 0.00 0.00 0.00 81 1014.9
20260903034004 78 0 0.0 0.0 0.00 0.00 0.00 81 1014.9
20260903033904 78 0 0.0 0.0 0.00 0.00 0.00 81 1014.9
20260903033703 78 0 0.0 0.0 0.00 0.00 0.00 81 1014.9
20260903033603 78 0 0.0 0.0 0.00 0.00 0.00 81 1014.9
20260903033504 78 0 0.0 0.0 0.00 0.00 0.00 81 1014.9
20260903033303 78 0 0.0 0.0 0.00 0.00 0.00 81 1014.9
20260903033203 78 0 0.0 0.0 0.00 0.00 0.00 81 1014.9
20260903033103 78 0 0.0 0.0 0.00 0.00 0.00 80 1015.0
20260903033003 78 0 0.0 0.0 0.00 0.00 0.00 80 1015.0
20260903032903 78 0 0.0 0.0 0.00 0.00 0.00 80 1015.0
20260903032803 78 0 0.0 0.0 0.00 0.00 0.00 80 1015.0
20260903032704 78 0 0.0 0.0 0.00 0.00 0.00 80 1015.0
20260903032503 78 0 0.0 0.0 0.00 0.00 0.00 80 1015.0
20260903032403 78 0 0.0 0.0 0.00 0.00 0.00 81 1015.0
20260903032306 78 0 0.0 0.0 0.00 0.00 0.00 81 1015.1
20260903032204 78 0 0.0 0.0 0.00 0.00 0.00 81 1015.1
20260903032103 78 0 0.0 0.0 0.00 0.00 0.00 81 1015.0
20260903032004 78 0 0.0 0.0 0.00 0.00 0.00 81 1015.0
20260903031904 78 0 0.0 0.0 0.00 0.00 0.00 81 1015.0
20260903031804 78 0 0.0 0.0 0.00 0.00 0.00 81 1015.0
20260903031703 78 0 0.0 0.0 0.00 0.00 0.00 81 1015.0
20260903031503 78 0 0.0 0.0 0.00 0.00 0.00 81 1015.0
20260903031403 78 0 0.0 0.0 0.00 0.00 0.00 81 1015.0
20260903031303 78 0 0.0 0.0 0.00 0.00 0.00 81 1015.0
20260903031204 78 0 0.0 0.0 0.00 0.00 0.00 80 1015.0
20260903031103 78 0 0.0 0.0 0.00 0.00 0.00 80 1015.1
20260903031004 78 0 0.0 0.0 0.00 0.00 0.00 80 1015.2
20260903030904 78 0 0.0 0.0 0.00 0.00 0.00 80 1015.2
20260903030804 78 0 0.0 0.0 0.00 0.00 0.00 80 1015.2
20260903030703 78 0 0.0 0.0 0.00 0.00 0.00 80 1015.1
20260903030604 78 0 0.0 0.0 0.00 0.00 0.00 80 1015.1
20260903030503 78 0 0.0 0.0 0.00 0.00 0.00 80 1015.1
20260903030403 78 0 0.0 0.0 0.00 0.00 0.00 80 1015.1
20260903030303 78 0 0.0 0.0 0.00 0.00 0.00 80 1015.1
20260903030203 78 0 0.0 0.0 0.00 0.00 0.00 80 1015.1
20260903030103 78 0 0.0 0.0 0.00 0.00 0.00 81 1015.1
20260903030003 78 0 0.0 0.0 0.00 0.00 0.00 81 1015.0
20260903025904 78 0 0.0 0.0 0.00 0.00 0.00 81 1015.0
20260903025804 78 0 0.0 0.0 0.00 0.00 0.00 81 1015.0
20260903025503 78 0 0.0 0.0 0.00 0.00 0.00 81 1015.0
20260903025404 78 0 0.0 0.0 0.00 0.00 0.00 81 1015.0
20260903025306 78 0 0.0 0.0 0.00 0.00 0.00 81 1015.0
20260903025104 78 0 0.0 0.0 0.00 0.00 0.00 81 1015.0
20260903025003 78 0 0.0 0.0 0.00 0.00 0.00 81 1015.0
20260903024903 78 0 0.0 0.0 0.00 0.00 0.00 82 1015.1
20260903024803 78 0 0.0 0.0 0.00 0.00 0.00 82 1015.1
20260903024703 78 0 0.0 0.0 0.00 0.00 0.00 82 1015.1
20260903024603 78 0 0.0 0.0 0.00 0.00 0.00 81 1015.1
20260903024503 78 0 0.0 0.0 0.00 0.00 0.00 81 1015.1
20260903024304 78 0 0.0 0.0 0.00 0.00 0.00 81 1015.0
20260903024204 78 0 0.0 0.0 0.00 0.00 0.00 81 1015.0
20260903024103 78 0 0.0 0.0 0.00 0.00 0.00 81 1015.0
20260903024004 78 0 0.0 0.0 0.00 0.00 0.00 81 1015.0
20260903023903 78 0 0.0 0.0 0.00 0.00 0.00 81 1015.0
20260903023703 78 0 0.0 0.0 0.00 0.00 0.00 81 1015.0
20260903023603 78 0 0.0 0.0 0.00 0.00 0.00 81 1015.0
20260903023404 78 0 0.0 0.0 0.00 0.00 0.00 81 1015.0
20260903023304 78 0 0.0 0.0 0.00 0.00 0.00 81 1015.0
20260903023204 78 0 0.0 0.0 0.00 0.00 0.00 81 1015.0
20260903023104 78 0 0.0 0.0 0.00 0.00 0.00 81 1015.0
20260903023004 78 0 0.0 0.0 0.00 0.00 0.00 81 1015.0
20260903022904 79 0 0.0 0.0 0.00 0.00 0.00 81 1015.0
20260903022803 79 0 0.0 0.0 0.00 0.00 0.00 80 1015.0
20260903022705 79 0 0.0 0.0 0.00 0.00 0.00 80 1015.0
20260903022603 79 0 0.0 0.0 0.00 0.00 0.00 80 1015.0
20260903022503 79 0 0.0 0.0 0.00 0.00 0.00 80 1015.0
20260903022403 79 0 0.0 0.0 0.00 0.00 0.00 81 1014.9
20260903022306 79 0 0.0 0.0 0.00 0.00 0.00 80 1014.9
20260903022204 78 0 0.0 0.0 0.00 0.00 0.00 80 1015.0
20260903022003 79 0 0.0 0.0 0.00 0.00 0.00 80 1015.0
20260903021903 79 0 0.0 0.0 0.00 0.00 0.00 80 1015.0
20260903021803 79 0 0.0 0.0 0.00 0.00 0.00 80 1015.0
20260903021704 79 0 0.0 0.0 0.00 0.00 0.00 80 1014.9
20260903021504 79 0 0.0 0.0 0.00 0.00 0.00 80 1014.9
20260903021404 79 0 0.0 0.0 0.00 0.00 0.00 80 1014.9
20260903021203 79 0 0.0 0.0 0.00 0.00 0.00 80 1014.9
20260903021104 79 0 0.0 0.0 0.00 0.00 0.00 80 1014.8
20260903021004 79 0 0.0 0.0 0.00 0.00 0.00 79 1014.8
20260903020803 79 0 0.0 0.0 0.00 0.00 0.00 79 1014.9
20260903020704 79 0 0.0 0.0 0.00 0.00 0.00 79 1014.9
20260903020603 79 0 0.0 0.0 0.00 0.00 0.00 79 1014.9
20260903020504 79 0 0.0 0.0 0.00 0.00 0.00 79 1014.9
20260903020403 79 0 0.0 0.0 0.00 0.00 0.00 79 1014.9
20260903020303 79 0 0.0 0.0 0.00 0.00 0.00 79 1014.9
20260903020203 79 0 0.0 0.0 0.00 0.00 0.00 79 1014.9
20260903020003 79 0 0.0 0.0 0.00 0.00 0.00 79 1014.9
20260903015904 79 0 0.0 0.0 0.00 0.00 0.00 79 1014.9
20260903015804 79 0 0.0 0.0 0.00 0.00 0.00 80 1014.8
20260903015703 80 0 0.0 0.0 0.00 0.00 0.00 79 1014.8
20260903015618 80 0 0.0 0.0 0.00 0.00 0.00 79 1014.8
20260903015604 79 0 0.0 0.0 0.00 0.00 0.00 79 1014.8
20260903015503 80 0 0.0 0.0 0.00 0.00 0.00 80 1014.8
20260903015417 79 0 0.0 0.0 0.00 0.00 0.00 80 1014.8
20260903015305 79 0 0.0 0.0 0.00 0.00 0.00 80 1014.8
20260903015104 80 0 0.0 0.0 0.00 0.00 0.00 80 1014.8
20260903015004 80 0 0.0 0.0 0.00 0.00 0.00 79 1014.8
20260903014904 80 0 0.0 0.0 0.00 0.00 0.00 79 1014.8
20260903014803 80 0 0.0 0.0 0.00 0.00 0.00 79 1014.8
20260903014703 80 0 0.0 0.0 0.00 0.00 0.00 79 1014.8
20260903014603 80 0 0.0 0.0 0.00 0.00 0.00 79 1014.8
20260903014504 80 0 0.0 0.0 0.00 0.00 0.00 78 1014.8
20260903014304 80 0 0.0 0.0 0.00 0.00 0.00 78 1014.7
20260903014204 80 0 0.0 0.0 0.00 0.00 0.00 78 1014.7
20260903014116 80 0 0.0 0.0 0.00 0.00 0.00 78 1014.7
20260903014004 80 0 0.0 0.0 0.00 0.00 0.00 78 1014.7
20260903013803 80 0 0.0 0.0 0.00 0.00 0.00 78 1014.7
20260903013703 80 0 0.0 0.0 0.00 0.00 0.00 77 1014.7
20260903013603 80 0 0.0 0.0 0.00 0.00 0.00 77 1014.7
20260903013503 80 0 0.0 0.0 0.00 0.00 0.00 77 1014.7
20260903013404 81 0 0.0 0.0 0.00 0.00 0.00 77 1014.7
20260903013204 81 0 0.0 0.0 0.00 0.00 0.00 77 1014.7
20260903013103 81 0 0.0 0.0 0.00 0.00 0.00 77 1014.7
20260903013004 81 0 0.0 0.0 0.00 0.00 0.00 77 1014.7
20260903012903 81 0 0.0 0.0 0.00 0.00 0.00 77 1014.7
20260903012803 81 0 0.0 0.0 0.00 0.00 0.00 77 1014.6
20260903012604 81 0 0.0 0.0 0.00 0.00 0.00 77 1014.6
20260903012503 81 0 0.0 0.0 0.00 0.00 0.00 77 1014.7
20260903012403 81 0 0.0 0.0 0.00 0.00 0.00 77 1014.6
20260903012306 81 0 0.0 0.0 0.00 0.00 0.00 77 1014.6
20260903012204 81 0 0.0 0.0 0.00 0.00 0.00 76 1014.6
20260903012003 81 0 0.0 0.0 0.00 0.00 0.00 77 1014.6
20260903011903 81 353 0.0 1.0 0.00 0.00 0.00 77 1014.5
20260903011803 81 353 0.0 1.0 0.00 0.00 0.00 76 1014.5
20260903011704 81 353 0.0 1.0 0.00 0.00 0.00 76 1014.5
20260903011603 81 353 0.0 1.0 0.00 0.00 0.00 76 1014.5
20260903011504 82 353 0.0 1.0 0.00 0.00 0.00 76 1014.5
20260903011404 82 353 0.0 1.0 0.00 0.00 0.00 76 1014.5
20260903011304 82 353 0.0 1.0 0.00 0.00 0.00 76 1014.5
20260903011203 82 353 0.0 1.0 0.00 0.00 0.00 76 1014.4
20260903011103 82 353 0.0 1.0 0.00 0.00 0.00 76 1014.4
20260903011004 82 353 0.0 1.0 0.00 0.00 0.00 76 1014.4
20260903010903 82 353 0.0 1.0 0.00 0.00 0.00 76 1014.4
20260903010803 82 353 0.0 1.0 0.00 0.00 0.00 76 1014.4
20260903010703 82 353 0.0 1.0 0.00 0.00 0.00 76 1014.4
20260903010604 82 353 0.0 1.0 0.00 0.00 0.00 75 1014.4
20260903010504 82 353 0.0 1.0 0.00 0.00 0.00 75 1014.4
20260903010403 82 0 0.0 0.0 0.00 0.00 0.00 75 1014.4
20260903010203 82 0 0.0 0.0 0.00 0.00 0.00 74 1014.4
20260903010003 82 353 0.0 1.0 0.00 0.00 0.00 74 1014.4
20260903005903 82 353 0.0 1.0 0.00 0.00 0.00 74 1014.5
20260903005803 83 353 0.0 1.0 0.00 0.00 0.00 73 1014.5
20260903005704 83 353 0.0 1.0 0.00 0.00 0.00 73 1014.5
20260903005603 83 353 0.0 1.0 0.00 0.00 0.00 73 1014.4
20260903005503 83 353 0.0 1.0 0.00 0.00 0.00 73 1014.4
20260903005403 83 353 0.0 1.0 0.00 0.00 0.00 73 1014.4
20260903005306 83 353 0.0 1.0 0.00 0.00 0.00 73 1014.4
20260903005103 83 353 0.0 1.0 0.00 0.00 0.00 73 1014.4
20260903005004 83 353 0.0 1.0 0.00 0.00 0.00 73 1014.4
20260903004903 83 353 0.0 1.0 0.00 0.00 0.00 73 1014.3
20260903004818 83 353 0.0 1.0 0.00 0.00 0.00 73 1014.3
20260903004803 83 353 0.0 1.0 0.00 0.00 0.00 72 1014.3
20260903004703 83 353 0.0 1.0 0.00 0.00 0.00 72 1014.3
20260903004617 83 353 0.0 1.0 0.00 0.00 0.00 72 1014.4
20260903004518 83 353 0.0 1.0 0.00 0.00 0.00 72 1014.4
20260903004203 84 353 0.0 1.0 0.00 0.00 0.00 73 1014.3
20260903004104 84 353 0.0 1.0 0.00 0.00 0.00 73 1014.3
20260903004003 84 0 0.0 0.0 0.00 0.00 0.00 73 1014.3
20260903003903 84 0 0.0 0.0 0.00 0.00 0.00 73 1014.3
20260903003803 84 0 0.0 0.0 0.00 0.00 0.00 72 1014.4
20260903003703 84 0 0.0 0.0 0.00 0.00 0.00 72 1014.4
20260903003604 84 353 0.0 1.0 0.00 0.00 0.00 72 1014.4
20260903003504 84 353 0.0 1.0 0.00 0.00 0.00 72 1014.4
20260903003403 84 353 0.0 1.0 0.00 0.00 0.00 72 1014.4
20260903003303 84 353 0.0 1.0 0.00 0.00 0.00 72 1014.4
20260903003204 84 353 0.0 1.0 0.00 0.00 0.00 71 1014.4
20260903003103 84 353 0.0 1.0 0.00 0.00 0.00 71 1014.4
20260903003003 84 353 0.0 1.0 0.00 0.00 0.00 71 1014.4
20260903002903 85 353 0.0 1.0 0.00 0.00 0.00 71 1014.4
20260903002803 85 353 0.0 1.0 0.00 0.00 0.00 70 1014.4
20260903002703 85 353 0.0 1.0 0.00 0.00 0.00 70 1014.4
20260903002604 85 353 0.0 1.0 0.00 0.00 0.00 70 1014.4
20260903002504 85 353 0.0 1.0 0.00 0.00 0.00 70 1014.4
20260903002403 85 353 0.0 1.0 0.00 0.00 0.00 70 1014.4
20260903002204 85 353 0.0 1.0 0.00 0.00 0.00 69 1014.4
20260903002103 85 353 0.0 1.0 0.00 0.00 0.00 69 1014.4
20260903002003 85 353 0.0 1.0 0.00 0.00 0.00 70 1014.4
20260903001903 85 353 0.0 1.0 0.00 0.00 0.00 69 1014.4
20260903001803 85 353 0.0 1.0 0.00 0.00 0.00 69 1014.4
20260903001704 85 353 0.0 1.0 0.00 0.00 0.00 69 1014.4
20260903001603 85 353 0.0 1.0 0.00 0.00 0.00 69 1014.4
20260903001503 85 353 0.0 1.0 0.00 0.00 0.00 69 1014.4
20260903001403 85 353 0.0 1.0 0.00 0.00 0.00 70 1014.4
20260903001204 86 353 0.0 1.0 0.00 0.00 0.00 70 1014.3
20260903001103 86 0 0.0 0.0 0.00 0.00 0.00 69 1014.3
20260903001003 86 352 0.0 1.0 0.00 0.00 0.00 69 1014.3
20260903000903 86 352 0.0 1.0 0.00 0.00 0.00 69 1014.3
20260903000804 86 352 0.0 1.0 0.00 0.00 0.00 68 1014.3
20260903000703 86 352 0.0 1.0 0.00 0.00 0.00 69 1014.3
20260903000503 86 352 0.0 1.0 0.00 0.00 0.00 68 1014.3
20260903000404 86 352 0.0 1.0 0.00 0.00 0.00 68 1014.3
20260903000304 86 352 0.0 1.0 0.00 0.00 0.00 68 1014.3
20260903000204 86 352 0.0 1.0 0.00 0.00 0.00 68 1014.3
20260903000104 86 352 0.0 1.0 0.00 0.00 0.00 68 1014.3
20260903000004 87 352 0.0 1.0 0.00 0.00 0.00 68 1014.3
20260902235903 87 352 0.0 1.0 0.00 0.00 0.00 68 1014.4
20260902235803 87 352 0.0 1.0 0.00 0.00 0.00 67 1014.4
20260902235703 87 352 0.0 1.0 0.00 0.00 0.00 68 1014.4
20260902235617 87 352 0.0 1.0 0.00 0.00 0.00 68 1014.4
20260902235603 87 352 0.0 1.0 0.00 0.00 0.00 69 1014.4
20260902235503 87 352 0.0 1.0 0.00 0.00 0.00 69 1014.4
20260902235306 87 352 0.0 1.0 0.00 0.00 0.00 69 1014.4
20260902235203 87 352 0.0 1.0 0.00 0.00 0.00 68 1014.4
20260902235103 87 352 0.0 1.0 0.00 0.00 0.00 68 1014.4
20260902235003 87 352 0.0 1.0 0.00 0.00 0.00 67 1014.4
20260902234903 88 352 0.0 1.0 0.00 0.00 0.00 66 1014.4
20260902234804 88 352 0.0 1.0 0.00 0.00 0.00 66 1014.4
20260902234703 88 352 0.0 1.0 0.00 0.00 0.00 66 1014.4
20260902234603 88 352 0.0 1.0 0.00 0.00 0.00 66 1014.4
20260902234504 88 0 0.0 0.0 0.00 0.00 0.00 65 1014.4
20260902234403 88 0 0.0 0.0 0.00 0.00 0.00 64 1014.4
20260902234304 88 0 0.0 0.0 0.00 0.00 0.00 64 1014.4
20260902234217 88 0 0.0 0.0 0.00 0.00 0.00 64 1014.4
20260902234203 89 0 0.0 0.0 0.00 0.00 0.00 64 1014.4
20260902233903 89 353 0.0 1.0 0.00 0.00 0.00 63 1014.4
20260902233804 89 353 0.0 1.0 0.00 0.00 0.00 63 1014.4
20260902233718 89 353 0.0 1.0 0.00 0.00 0.00 63 1014.4
20260902233703 89 353 0.0 1.0 0.00 0.00 0.00 62 1014.4
20260902233604 89 353 0.0 1.0 0.00 0.00 0.00 63 1014.4
20260902233404 89 353 0.0 1.0 0.00 0.00 0.00 62 1014.4
20260902233304 89 353 0.0 1.0 0.00 0.00 0.00 62 1014.4
20260902233203 89 353 0.0 1.0 0.00 0.00 0.00 61 1014.4
20260902233103 89 353 0.0 1.0 0.00 0.00 0.00 61 1014.4
20260902232904 90 353 0.0 1.0 0.00 0.00 0.00 61 1014.4
20260902232803 90 352 0.0 1.0 0.00 0.00 0.00 61 1014.4
20260902232703 90 352 0.0 1.0 0.00 0.00 0.00 61 1014.4
20260902232503 90 352 0.0 1.0 0.00 0.00 0.00 60 1014.4
20260902232403 90 352 0.0 1.0 0.00 0.00 0.00 61 1014.4
20260902232306 90 352 0.0 1.0 0.00 0.00 0.00 60 1014.4
20260902232203 90 0 0.0 0.0 0.00 0.00 0.00 60 1014.4
20260902232003 90 0 0.0 0.0 0.00 0.00 0.00 59 1014.4
20260902231904 90 352 0.0 1.0 0.00 0.00 0.00 59 1014.4
20260902231803 90 352 0.0 1.0 0.00 0.00 0.00 59 1014.4
20260902231718 91 352 0.0 1.0 0.00 0.00 0.00 59 1014.4
20260902231603 91 352 0.0 1.0 0.00 0.00 0.00 59 1014.4
20260902231403 91 352 0.0 1.0 0.00 0.00 0.00 59 1014.4
20260902231303 91 352 0.0 1.0 0.00 0.00 0.00 58 1014.3
20260902231203 91 352 0.0 1.0 0.00 0.00 0.00 58 1014.3
20260902231103 91 352 0.0 1.0 0.00 0.00 0.00 58 1014.3
20260902231003 91 352 0.0 1.0 0.00 0.00 0.00 57 1014.3
20260902230917 91 352 0.0 1.0 0.00 0.00 0.00 58 1014.3
20260902230903 91 352 0.0 1.0 0.00 0.00 0.00 57 1014.3
20260902230804 92 352 0.0 1.0 0.00 0.00 0.00 58 1014.4
20260902230718 92 352 0.0 1.0 0.00 0.00 0.00 57 1014.4
20260902230604 92 352 0.0 1.0 0.00 0.00 0.00 57 1014.3
20260902230519 92 352 0.0 1.0 0.00 0.00 0.00 57 1014.3
20260902230403 92 0 0.0 0.0 0.00 0.00 0.00 57 1014.3
20260902230004 92 0 0.0 0.0 0.00 0.00 0.00 56 1014.3
20260902225903 92 0 0.0 0.0 0.00 0.00 0.00 55 1014.3
20260902225804 92 0 0.0 0.0 0.00 0.00 0.00 55 1014.3
20260902225703 92 0 0.0 0.0 0.00 0.00 0.00 54 1014.3
20260902225604 93 352 0.0 1.0 0.00 0.00 0.00 54 1014.3
20260902225504 93 352 0.0 1.0 0.00 0.00 0.00 54 1014.4
20260902225403 93 352 0.0 1.0 0.00 0.00 0.00 54 1014.4
20260902225203 93 352 0.0 1.0 0.00 0.00 0.00 54 1014.4
20260902225104 93 352 0.0 1.0 0.00 0.00 0.00 53 1014.4
20260902225004 93 352 0.0 1.0 0.00 0.00 0.00 53 1014.4
20260902224904 93 352 0.0 1.0 0.00 0.00 0.00 53 1014.4
20260902224803 93 352 0.0 1.0 0.00 0.00 0.00 54 1014.4
20260902224704 93 352 0.0 1.0 0.00 0.00 0.00 54 1014.4
20260902224604 93 352 0.0 1.0 0.00 0.00 0.00 54 1014.4
20260902224503 94 352 0.0 1.0 0.00 0.00 0.00 53 1014.4
20260902224404 94 352 0.0 1.0 0.00 0.00 0.00 52 1014.4
20260902224303 94 352 0.0 1.0 0.00 0.00 0.00 52 1014.4
20260902224203 94 0 0.0 0.0 0.00 0.00 0.00 51 1014.4
20260902223919 94 0 0.0 0.0 0.00 0.00 0.00 52 1014.3
20260902223903 94 0 0.0 0.0 0.00 0.00 0.00 51 1014.3
20260902223803 94 0 0.0 0.0 0.00 0.00 0.00 50 1014.3
20260902223604 95 0 0.0 0.0 0.00 0.00 0.00 50 1014.3
20260902223504 95 0 0.0 0.0 0.00 0.00 0.00 50 1014.3
20260902223403 94 0 0.0 0.0 0.00 0.00 0.00 50 1014.3
20260902223203 94 0 0.0 0.0 0.00 0.00 0.00 50 1014.3
20260902223104 94 0 0.0 0.0 0.00 0.00 0.00 51 1014.3
20260902223004 94 0 0.0 0.0 0.00 0.00 0.00 51 1014.4
20260902222916 94 0 0.0 0.0 0.00 0.00 0.00 52 1014.4
20260902222904 94 0 0.0 0.0 0.00 0.00 0.00 52 1014.3
20260902222804 94 353 0.0 1.0 0.00 0.00 0.00 52 1014.3
20260902222604 94 352 0.0 2.0 0.00 0.00 0.00 53 1014.3
20260902222504 94 353 0.0 2.0 0.00 0.00 0.00 53 1014.3
20260902222404 94 353 0.0 2.0 0.00 0.00 0.00 53 1014.3
20260902222305 94 353 0.0 2.0 0.00 0.00 0.00 53 1014.3
20260902222204 95 352 0.0 2.0 0.00 0.00 0.00 52 1014.3
20260902222103 95 351 1.0 4.0 0.00 0.00 0.00 51 1014.4
20260902221903 95 351 1.0 4.0 0.00 0.00 0.00 51 1014.4
20260902221804 95 350 1.0 4.0 0.00 0.00 0.00 50 1014.4
20260902221704 95 350 1.0 4.0 0.00 0.00 0.00 49 1014.4
20260902221603 96 350 1.0 4.0 0.00 0.00 0.00 49 1014.4
20260902221503 96 349 1.0 4.0 0.00 0.00 0.00 48 1014.4
20260902221403 96 349 1.0 4.0 0.00 0.00 0.00 48 1014.4
20260902221318 95 349 2.0 4.0 0.00 0.00 0.00 48 1014.4
20260902221303 96 349 2.0 4.0 0.00 0.00 0.00 48 1014.4
20260902221004 96 348 1.0 2.0 0.00 0.00 0.00 50 1014.4
20260902220904 96 348 1.0 2.0 0.00 0.00 0.00 50 1014.4
20260902220804 96 348 1.0 2.0 0.00 0.00 0.00 49 1014.4
20260902220718 96 348 1.0 2.0 0.00 0.00 0.00 49 1014.5
20260902220703 96 349 1.0 2.0 0.00 0.00 0.00 49 1014.5
20260902220519 96 355 0.0 2.0 0.00 0.00 0.00 49 1014.4
20260902220403 96 14 1.0 3.0 0.00 0.00 0.00 50 1014.4
20260902220203 96 28 0.0 3.0 0.00 0.00 0.00 50 1014.4
20260902220104 96 28 1.0 3.0 0.00 0.00 0.00 50 1014.4
20260902220004 96 28 1.0 3.0 0.00 0.00 0.00 50 1014.4
20260902215903 96 28 1.0 3.0 0.00 0.00 0.00 48 1014.4
20260902215804 96 27 1.0 3.0 0.00 0.00 0.00 48 1014.4
20260902215718 96 27 1.0 3.0 0.00 0.00 0.00 48 1014.4
20260902215603 96 25 1.0 3.0 0.00 0.00 0.00 48 1014.5
20260902215417 96 23 1.0 3.0 0.00 0.00 0.00 50 1014.5
20260902215403 96 22 1.0 3.0 0.00 0.00 0.00 50 1014.5
20260902215306 96 21 1.0 5.0 0.00 0.00 0.00 49 1014.5
20260902215103 96 20 1.0 5.0 0.00 0.00 0.00 50 1014.5
20260902215003 96 20 1.0 5.0 0.00 0.00 0.00 49 1014.5
20260902214903 96 20 1.0 5.0 0.00 0.00 0.00 50 1014.5
20260902214803 96 19 1.0 5.0 0.00 0.00 0.00 49 1014.5
20260902214704 96 19 1.0 5.0 0.00 0.00 0.00 49 1014.5
20260902214603 96 19 1.0 5.0 0.00 0.00 0.00 50 1014.5
20260902214504 96 19 1.0 5.0 0.00 0.00 0.00 49 1014.4
20260902214403 96 20 1.0 5.0 0.00 0.00 0.00 49 1014.4
20260902214303 96 19 1.0 4.0 0.00 0.00 0.00 49 1014.5
20260902214204 96 19 1.0 2.0 0.00 0.00 0.00 50 1014.5
20260902214103 96 19 1.0 2.0 0.00 0.00 0.00 49 1014.5
20260902214003 96 19 1.0 2.0 0.00 0.00 0.00 49 1014.4
20260902213903 96 19 1.0 3.0 0.00 0.00 0.00 49 1014.4
20260902213804 96 19 1.0 4.0 0.00 0.00 0.00 48 1014.5
20260902213704 96 19 1.0 4.0 0.00 0.00 0.00 48 1014.5
20260902213603 96 19 1.0 4.0 0.00 0.00 0.00 49 1014.5
20260902213503 96 19 1.0 4.0 0.00 0.00 0.00 48 1014.5
20260902213403 96 18 1.0 4.0 0.00 0.00 0.00 47 1014.5
20260902213303 96 18 1.0 4.0 0.00 0.00 0.00 48 1014.5
20260902213203 96 17 1.0 4.0 0.00 0.00 0.00 48 1014.5
20260902213103 96 14 1.0 4.0 0.00 0.00 0.00 49 1014.5
20260902213003 96 280 1.0 4.0 0.00 0.00 0.00 48 1014.5
20260902212903 96 207 1.0 4.0 0.00 0.00 0.00 47 1014.5
20260902212804 96 204 1.0 2.0 0.00 0.00 0.00 49 1014.5
20260902212703 96 201 1.0 3.0 0.00 0.00 0.00 49 1014.5
20260902212504 96 198 1.0 3.0 0.00 0.00 0.00 48 1014.6
20260902212403 96 195 1.0 3.0 0.00 0.00 0.00 47 1014.6
20260902212305 96 190 1.0 3.0 0.00 0.00 0.00 48 1014.6
20260902212203 96 172 1.0 3.0 0.00 0.00 0.00 49 1014.6
20260902212117 96 135 1.0 3.0 0.00 0.00 0.00 47 1014.6
20260902212103 96 127 1.0 3.0 0.00 0.00 0.00 47 1014.6
20260902212003 96 81 1.0 3.0 0.00 0.00 0.00 47 1014.6
20260902211804 96 57 1.0 3.0 0.00 0.00 0.00 47 1014.6
20260902211703 96 53 1.0 3.0 0.00 0.00 0.00 47 1014.6
20260902211603 96 53 1.0 3.0 0.00 0.00 0.00 47 1014.6
20260902211503 96 53 1.0 3.0 0.00 0.00 0.00 47 1014.6
20260902211403 96 54 1.0 3.0 0.00 0.00 0.00 47 1014.6
20260902211303 96 56 1.0 3.0 0.00 0.00 0.00 47 1014.6
20260902211203 96 59 1.0 3.0 0.00 0.00 0.00 47 1014.6
20260902211103 96 57 1.0 3.0 0.00 0.00 0.00 47 1014.6
20260902211004 96 57 1.0 3.0 0.00 0.00 0.00 47 1014.6
20260902210903 96 58 1.0 2.0 0.00 0.00 0.00 47 1014.6
20260902210804 96 51 1.0 2.0 0.00 0.00 0.00 48 1014.6
20260902210703 96 44 0.0 2.0 0.00 0.00 0.00 47 1014.6
20260902210604 96 43 0.0 2.0 0.00 0.00 0.00 49 1014.6
20260902210503 96 35 1.0 2.0 0.00 0.00 0.00 50 1014.7
20260902210403 96 32 1.0 2.0 0.00 0.00 0.00 48 1014.7
20260902210303 96 21 1.0 2.0 0.00 0.00 0.00 49 1014.7
20260902210218 96 17 0.0 2.0 0.00 0.00 0.00 49 1014.7
20260902210203 96 14 0.0 2.0 0.00 0.00 0.00 49 1014.7
20260902210103 97 14 0.0 2.0 0.00 0.00 0.00 50 1014.7
20260902205903 97 17 1.0 2.0 0.00 0.00 0.00 48 1014.7
20260902205803 98 20 1.0 2.0 0.00 0.00 0.00 47 1014.7
20260902205704 97 22 1.0 2.0 0.00 0.00 0.00 47 1014.7
20260902205603 97 22 1.0 2.0 0.00 0.00 0.00 48 1014.7
20260902205504 97 22 1.0 2.0 0.00 0.00 0.00 46 1014.8
20260902205403 97 16 1.0 2.0 0.00 0.00 0.00 48 1014.8
20260902205306 97 4 1.0 3.0 0.00 0.00 0.00 49 1014.8
20260902205203 97 359 1.0 3.0 0.00 0.00 0.00 49 1014.8
20260902205103 97 350 1.0 3.0 0.00 0.00 0.00 49 1014.7
20260902205003 97 333 1.0 3.0 0.00 0.00 0.00 50 1014.7
20260902204904 97 323 1.0 3.0 0.00 0.00 0.00 46 1014.8
20260902204804 97 316 1.0 3.0 0.00 0.00 0.00 46 1014.8
20260902204703 98 311 1.0 3.0 0.00 0.00 0.00 47 1014.7
20260902204603 98 303 1.0 3.0 0.00 0.00 0.00 46 1014.8
20260902204504 98 303 1.0 3.0 0.00 0.00 0.00 46 1014.8
20260902204403 98 302 1.0 3.0 0.00 0.00 0.00 46 1014.8
20260902204317 98 307 1.0 3.0 0.00 0.00 0.00 46 1014.8
20260902204303 98 314 1.0 3.0 0.00 0.00 0.00 46 1014.8
20260902204017 98 15 1.0 3.0 0.00 0.00 0.00 47 1014.9
20260902204004 98 22 1.0 3.0 0.00 0.00 0.00 47 1014.9
20260902203903 98 50 1.0 3.0 0.00 0.00 0.00 48 1014.8
20260902203703 97 59 0.0 3.0 0.00 0.00 0.00 49 1014.8
20260902203603 97 59 0.0 3.0 0.00 0.00 0.00 49 1014.8
20260902203404 97 59 0.0 3.0 0.00 0.00 0.00 48 1014.9
20260902203303 97 59 0.0 3.0 0.00 0.00 0.00 47 1014.9
20260902203203 97 59 0.0 3.0 0.00 0.00 0.00 48 1014.9
20260902203103 97 59 0.0 2.0 0.00 0.00 0.00 48 1015.0
20260902203003 97 59 0.0 2.0 0.00 0.00 0.00 50 1015.0
20260902202903 97 57 1.0 3.0 0.00 0.00 0.00 49 1014.9
20260902202803 97 44 1.0 5.0 0.00 0.00 0.00 48 1015.0
20260902202717 97 42 1.0 5.0 0.00 0.00 0.00 49 1015.0
20260902202703 97 41 1.0 5.0 0.00 0.00 0.00 49 1015.0
20260902202603 97 39 1.0 5.0 0.00 0.00 0.00 49 1015.0
20260902202417 96 31 1.0 5.0 0.00 0.00 0.00 48 1015.0
20260902202404 96 30 1.0 5.0 0.00 0.00 0.00 49 1015.0
20260902202306 97 30 1.0 5.0 0.00 0.00 0.00 49 1015.0
20260902202103 97 29 1.0 5.0 0.00 0.00 0.00 47 1015.0
20260902202003 97 24 1.0 5.0 0.00 0.00 0.00 47 1015.0
20260902201904 97 18 1.0 5.0 0.00 0.00 0.00 49 1015.0
20260902201803 97 15 1.0 4.0 0.00 0.00 0.00 49 1015.1
20260902201703 97 12 1.0 4.0 0.00 0.00 0.00 47 1015.1
20260902201604 97 11 2.0 4.0 0.00 0.00 0.00 47 1015.1
20260902201504 97 9 2.0 4.0 0.00 0.00 0.00 47 1015.1
20260902201404 97 8 2.0 4.0 0.00 0.00 0.00 48 1015.1
20260902201303 97 6 2.0 4.0 0.00 0.00 0.00 47 1015.1
20260902201203 97 4 2.0 4.0 0.00 0.00 0.00 48 1015.1
20260902201104 97 359 2.0 4.0 0.00 0.00 0.00 47 1015.2
20260902201003 97 359 2.0 4.0 0.00 0.00 0.00 46 1015.2
20260902200904 98 359 2.0 4.0 0.00 0.00 0.00 47 1015.2
20260902200804 98 357 2.0 4.0 0.00 0.00 0.00 46 1015.3
20260902200703 98 183 2.0 4.0 0.00 0.00 0.00 48 1015.3
20260902200603 98 182 2.0 4.0 0.00 0.00 0.00 47 1015.3
20260902200503 98 180 1.0 4.0 0.00 0.00 0.00 47 1015.3
20260902200403 97 180 1.0 4.0 0.00 0.00 0.00 47 1015.3
20260902200304 97 181 1.0 4.0 0.00 0.00 0.00 48 1015.3
20260902200203 98 183 1.0 4.0 0.00 0.00 0.00 47 1015.3
20260902200003 98 280 1.0 4.0 0.00 0.00 0.00 46 1015.4
20260902195918 99 336 1.0 4.0 0.00 0.00 0.00 47 1015.4
20260902195904 98 342 1.0 4.0 0.00 0.00 0.00 47 1015.4
20260902195804 98 347 1.0 4.0 0.00 0.00 0.00 47 1015.4
20260902195603 98 350 1.0 3.0 0.00 0.00 0.00 49 1015.4
20260902195503 98 350 1.0 3.0 0.00 0.00 0.00 48 1015.4
20260902195403 98 350 1.0 3.0 0.00 0.00 0.00 49 1015.4
20260902195306 98 350 1.0 3.0 0.00 0.00 0.00 49 1015.4
20260902195203 98 349 1.0 3.0 0.00 0.00 0.00 49 1015.5
20260902195003 97 347 1.0 3.0 0.00 0.00 0.00 50 1015.5
20260902194903 97 345 1.0 3.0 0.00 0.00 0.00 49 1015.5
20260902194703 96 342 1.0 3.0 0.00 0.00 0.00 48 1015.5
20260902194603 97 340 1.0 3.0 0.00 0.00 0.00 47 1015.5
20260902194503 97 339 1.0 3.0 0.00 0.00 0.00 47 1015.6
20260902194403 97 338 1.0 3.0 0.00 0.00 0.00 47 1015.6
20260902194303 98 336 1.0 3.0 0.00 0.00 0.00 46 1015.6
20260902194203 98 332 1.0 2.0 0.00 0.00 0.00 46 1015.6
20260902194104 98 334 1.0 2.0 0.00 0.00 0.00 46 1015.6
20260902194004 98 334 1.0 2.0 0.00 0.00 0.00 47 1015.7
20260902193903 98 335 1.0 2.0 0.00 0.00 0.00 49 1015.7
20260902193818 98 335 1.0 2.0 0.00 0.00 0.00 48 1015.7
20260902193704 98 332 1.0 2.0 0.00 0.00 0.00 46 1015.7
20260902193503 98 322 1.0 4.0 0.00 0.00 0.00 49 1015.7
20260902193403 98 322 1.0 4.0 0.00 0.00 0.00 49 1015.7
20260902193304 98 325 1.0 4.0 0.00 0.00 0.00 48 1015.7
20260902193203 98 324 1.0 4.0 0.00 0.00 0.00 48 1015.7
20260902193118 98 321 1.0 4.0 0.00 0.00 0.00 48 1015.7
20260902193103 98 320 1.0 4.0 0.00 0.00 0.00 48 1015.7